Time,TemperatureF,DewpointF,PressureIn,WindDirection,WindDirectionDegrees,WindSpeedMPH,WindSpeedGustMPH,Humidity,HourlyPrecipIn,Conditions,Clouds,dailyrainin,SoftwareType,DateUTC
2013-01-24 00:00:00,-5.4,-11.0,30.49,NE,53,0.0,10.0,76,0.00,,,0.00,VWS V12.07,2013-01-24 06:00:00,
2013-01-24 00:05:00,-5.6,-11.2,30.49,NE,53,0.0,10.0,76,0.00,,,0.00,VWS V12.07,2013-01-24 06:05:00,
2013-01-24 00:06:00,-5.6,-11.2,30.49,NE,53,0.0,10.0,76,0.00,,,0.00,VWS V12.07,2013-01-24 06:06:00,
2013-01-24 00:10:00,-5.6,-11.2,30.49,NE,53,0.0,10.0,76,0.00,,,0.00,VWS V12.07,2013-01-24 06:10:00,
2013-01-24 00:11:00,-5.9,-11.5,30.49,NE,53,0.0,10.0,76,0.00,,,0.00,VWS V12.07,2013-01-24 06:11:00,
2013-01-24 00:15:00,-5.9,-11.5,30.50,NE,53,0.0,10.0,76,0.00,,,0.00,VWS V12.07,2013-01-24 06:15:00,
2013-01-24 00:16:00,-5.9,-11.5,30.50,NE,53,0.0,10.0,76,0.00,,,0.00,VWS V12.07,2013-01-24 06:16:00,
2013-01-24 00:20:00,-5.6,-11.2,30.49,NE,53,0.0,0.0,76,0.00,,CLR,0.00,VWS V12.07,2013-01-24 06:20:00,
2013-01-24 00:21:00,-6.1,-11.7,30.50,NE,53,0.0,10.0,76,0.00,,,0.00,VWS V12.07,2013-01-24 06:21:00,
2013-01-24 00:26:00,-6.1,-11.7,30.50,NE,53,0.0,10.0,76,0.00,,,0.00,VWS V12.07,2013-01-24 06:26:00,
2013-01-24 00:27:00,-6.1,-11.7,30.50,NE,53,0.0,10.0,76,0.00,,,0.00,VWS V12.07,2013-01-24 06:27:00,
2013-01-24 00:30:00,-5.9,-11.5,30.50,NE,53,0.0,0.0,76,0.00,,CLR,0.00,VWS V12.07,2013-01-24 06:30:00,
2013-01-24 00:31:00,-6.3,-11.9,30.51,NE,53,0.0,10.0,76,0.00,,,0.00,VWS V12.07,2013-01-24 06:31:00,
2013-01-24 00:32:00,-6.3,-11.9,30.51,NE,53,0.0,10.0,76,0.00,,,0.00,VWS V12.07,2013-01-24 06:32:00,
2013-01-24 00:36:00,-6.3,-11.9,30.51,NE,53,0.0,10.0,76,0.00,,,0.00,VWS V12.07,2013-01-24 06:36:00,
2013-01-24 00:37:00,-6.3,-11.9,30.51,NE,53,0.0,10.0,76,0.00,,,0.00,VWS V12.07,2013-01-24 06:37:00,
2013-01-24 00:38:00,-6.3,-11.9,30.51,NE,53,0.0,10.0,76,0.00,,,0.00,VWS V12.07,2013-01-24 06:38:00,
2013-01-24 00:40:00,-6.1,-11.7,30.50,NE,53,0.0,0.0,76,0.00,,CLR,0.00,VWS V12.07,2013-01-24 06:40:00,
2013-01-24 00:41:00,-6.5,-12.1,30.51,NE,53,0.0,10.0,76,0.00,,,0.00,VWS V12.07,2013-01-24 06:41:00,
2013-01-24 00:42:00,-6.5,-12.1,30.51,NE,53,0.0,10.0,76,0.00,,,0.00,VWS V12.07,2013-01-24 06:42:00,
2013-01-24 00:43:00,-6.5,-12.1,30.51,NE,53,0.0,10.0,76,0.00,,,0.00,VWS V12.07,2013-01-24 06:43:00,
2013-01-24 00:47:00,-6.5,-12.1,30.52,NE,53,0.0,10.0,76,0.00,,,0.00,VWS V12.07,2013-01-24 06:47:00,
2013-01-24 00:48:00,-6.5,-12.1,30.52,NE,53,0.0,10.0,76,0.00,,,0.00,VWS V12.07,2013-01-24 06:48:00,
2013-01-24 00:50:00,-6.3,-11.9,30.51,NE,53,0.0,0.0,76,0.00,,CLR,0.00,VWS V12.07,2013-01-24 06:50:00,
2013-01-24 00:52:00,-6.8,-12.6,30.52,NE,53,0.0,10.0,75,0.00,,,0.00,VWS V12.07,2013-01-24 06:52:00,
2013-01-24 00:53:00,-7.0,-12.8,30.52,NE,53,0.0,10.0,75,0.00,,,0.00,VWS V12.07,2013-01-24 06:53:00,
2013-01-24 00:57:00,-7.0,-12.8,30.52,NE,53,0.0,10.0,75,0.00,,,0.00,VWS V12.07,2013-01-24 06:57:00,
2013-01-24 00:58:00,-7.2,-13.0,30.52,NE,53,0.0,10.0,75,0.00,,,0.00,VWS V12.07,2013-01-24 06:58:00,
2013-01-24 01:00:00,-6.5,-12.1,30.52,NE,53,0.0,0.0,76,0.00,,CLR,0.00,VWS V12.07,2013-01-24 07:00:00,
2013-01-24 01:02:00,-7.2,-13.0,30.53,NE,53,0.0,10.0,75,0.00,,,0.00,VWS V12.07,2013-01-24 07:02:00,
2013-01-24 01:03:00,-7.2,-13.0,30.53,NE,53,0.0,10.0,75,0.00,,,0.00,VWS V12.07,2013-01-24 07:03:00,
2013-01-24 01:08:00,-7.5,-13.3,30.53,NE,53,0.0,10.0,75,0.00,,,0.00,VWS V12.07,2013-01-24 07:08:00,
2013-01-24 01:10:00,-7.0,-12.8,30.52,NE,53,0.0,0.0,75,0.00,,CLR,0.00,VWS V12.07,2013-01-24 07:10:00,
2013-01-24 01:13:00,-7.7,-13.5,30.53,NE,53,0.0,10.0,75,0.00,,,0.00,VWS V12.07,2013-01-24 07:13:00,
2013-01-24 01:18:00,-7.9,-13.7,30.53,NE,53,0.0,10.0,75,0.00,,,0.00,VWS V12.07,2013-01-24 07:18:00,
2013-01-24 01:20:00,-7.5,-13.3,30.53,NE,53,0.0,1.0,75,0.00,,CLR,0.00,VWS V12.07,2013-01-24 07:20:00,
2013-01-24 01:23:00,-8.2,-14.2,30.53,NE,53,0.0,10.0,74,0.00,,,0.00,VWS V12.07,2013-01-24 07:23:00,
2013-01-24 01:24:00,-8.4,-14.4,30.53,NE,53,0.0,10.0,74,0.00,,,0.00,VWS V12.07,2013-01-24 07:24:00,
2013-01-24 01:28:00,-8.6,-14.6,30.53,NE,53,0.0,10.0,74,0.00,,,0.00,VWS V12.07,2013-01-24 07:28:00,
2013-01-24 01:29:00,-8.6,-14.6,30.53,NE,53,0.0,10.0,74,0.00,,,0.00,VWS V12.07,2013-01-24 07:29:00,
2013-01-24 01:30:00,-7.7,-13.5,30.53,NE,53,0.0,1.0,75,0.00,,CLR,0.00,VWS V12.07,2013-01-24 07:30:00,
2013-01-24 01:33:00,-8.9,-14.9,30.54,NE,53,0.0,10.0,74,0.00,,,0.00,VWS V12.07,2013-01-24 07:33:00,
2013-01-24 01:34:00,-8.9,-14.9,30.54,NE,53,0.0,10.0,74,0.00,,,0.00,VWS V12.07,2013-01-24 07:34:00,
2013-01-24 01:39:00,-8.9,-14.9,30.54,NE,53,0.0,10.0,74,0.00,,,0.00,VWS V12.07,2013-01-24 07:39:00,
2013-01-24 01:40:00,-8.4,-14.4,30.53,NE,53,0.0,0.0,74,0.00,,CLR,0.00,VWS V12.07,2013-01-24 07:40:00,
2013-01-24 01:44:00,-9.1,-15.1,30.54,NE,53,0.0,10.0,74,0.00,,,0.00,VWS V12.07,2013-01-24 07:44:00,
2013-01-24 01:49:00,-9.1,-15.1,30.54,NE,53,0.0,10.0,74,0.00,,,0.00,VWS V12.07,2013-01-24 07:49:00,
2013-01-24 01:50:00,-9.3,-15.3,30.54,NE,53,0.0,10.0,74,0.00,,,0.00,VWS V12.07,2013-01-24 07:50:00,
2013-01-24 01:54:00,-9.1,-14.9,30.54,NE,53,0.0,10.0,75,0.00,,,0.00,VWS V12.07,2013-01-24 07:54:00,
2013-01-24 01:55:00,-9.1,-14.9,30.54,NE,53,0.0,10.0,75,0.00,,,0.00,VWS V12.07,2013-01-24 07:55:00,
2013-01-24 01:56:00,-8.9,-14.7,30.54,NE,53,0.0,10.0,75,0.00,,,0.00,VWS V12.07,2013-01-24 07:56:00,
2013-01-24 01:59:00,-8.9,-14.7,30.54,NE,53,0.0,10.0,75,0.00,,,0.00,VWS V12.07,2013-01-24 07:59:00,
2013-01-24 02:00:00,-8.9,-14.7,30.55,NE,53,0.0,10.0,75,0.00,,,0.00,VWS V12.07,2013-01-24 08:00:00,
2013-01-24 02:01:00,-8.9,-14.7,30.55,NE,53,0.0,10.0,75,0.00,,,0.00,VWS V12.07,2013-01-24 08:01:00,
2013-01-24 02:04:00,-8.9,-14.7,30.55,NE,53,0.0,10.0,75,0.00,,,0.00,VWS V12.07,2013-01-24 08:04:00,
2013-01-24 02:05:00,-8.9,-14.7,30.55,NE,53,0.0,10.0,75,0.00,,,0.00,VWS V12.07,2013-01-24 08:05:00,
2013-01-24 02:06:00,-8.9,-14.7,30.55,NE,53,0.0,10.0,75,0.00,,,0.00,VWS V12.07,2013-01-24 08:06:00,
2013-01-24 02:10:00,-8.9,-14.7,30.55,NE,53,0.0,10.0,75,0.00,,,0.00,VWS V12.07,2013-01-24 08:10:00,
2013-01-24 02:11:00,-8.9,-14.7,30.55,NE,53,0.0,10.0,75,0.00,,,0.00,VWS V12.07,2013-01-24 08:11:00,
2013-01-24 02:12:00,-8.9,-14.7,30.55,NE,53,0.0,10.0,75,0.00,,,0.00,VWS V12.07,2013-01-24 08:12:00,
2013-01-24 02:15:00,-8.9,-14.7,30.56,NE,53,0.0,10.0,75,0.00,,,0.00,VWS V12.07,2013-01-24 08:15:00,
2013-01-24 02:16:00,-8.9,-14.7,30.56,NE,53,0.0,10.0,75,0.00,,,0.00,VWS V12.07,2013-01-24 08:16:00,
2013-01-24 02:17:00,-8.9,-14.7,30.56,NE,53,0.0,10.0,75,0.00,,,0.00,VWS V12.07,2013-01-24 08:17:00,
2013-01-24 02:20:00,-8.9,-14.7,30.56,NE,53,0.0,10.0,75,0.00,,,0.00,VWS V12.07,2013-01-24 08:20:00,
2013-01-24 02:21:00,-8.9,-14.7,30.56,NE,53,0.0,10.0,75,0.00,,,0.00,VWS V12.07,2013-01-24 08:21:00,
2013-01-24 02:23:00,-8.9,-14.7,30.56,NE,53,0.0,10.0,75,0.00,,,0.00,VWS V12.07,2013-01-24 08:23:00,
2013-01-24 02:26:00,-8.9,-14.7,30.56,NE,53,0.0,10.0,75,0.00,,,0.00,VWS V12.07,2013-01-24 08:26:00,
2013-01-24 02:27:00,-9.1,-14.9,30.56,NE,53,0.0,10.0,75,0.00,,,0.00,VWS V12.07,2013-01-24 08:27:00,
2013-01-24 02:28:00,-9.1,-14.9,30.56,NE,53,0.0,10.0,75,0.00,,,0.00,VWS V12.07,2013-01-24 08:28:00,
2013-01-24 02:30:00,-8.9,-14.7,30.56,NE,53,0.0,0.0,75,0.00,,CLR,0.00,VWS V12.07,2013-01-24 08:30:00,
2013-01-24 02:31:00,-9.1,-14.9,30.57,NE,53,0.0,10.0,75,0.00,,,0.00,VWS V12.07,2013-01-24 08:31:00,
2013-01-24 02:32:00,-9.1,-14.9,30.57,NE,53,0.0,10.0,75,0.00,,,0.00,VWS V12.07,2013-01-24 08:32:00,
2013-01-24 02:33:00,-9.1,-15.1,30.57,NE,53,0.0,10.0,74,0.00,,,0.00,VWS V12.07,2013-01-24 08:33:00,
2013-01-24 02:36:00,-9.3,-15.3,30.57,NE,53,0.0,10.0,74,0.00,,,0.00,VWS V12.07,2013-01-24 08:36:00,
2013-01-24 02:37:00,-9.3,-15.3,30.57,NE,53,0.0,10.0,74,0.00,,,0.00,VWS V12.07,2013-01-24 08:37:00,
2013-01-24 02:38:00,-9.3,-15.3,30.57,NE,53,0.0,10.0,74,0.00,,,0.00,VWS V12.07,2013-01-24 08:38:00,
2013-01-24 02:39:00,-9.3,-15.3,30.57,NE,53,0.0,10.0,74,0.00,,,0.00,VWS V12.07,2013-01-24 08:39:00,
2013-01-24 02:40:00,-8.9,-14.7,30.56,NE,53,0.0,0.0,75,0.00,,CLR,0.00,VWS V12.07,2013-01-24 08:40:00,
2013-01-24 02:41:00,-9.6,-15.6,30.57,NE,53,0.0,10.0,74,0.00,,,0.00,VWS V12.07,2013-01-24 08:41:00,
2013-01-24 02:42:00,-9.6,-15.6,30.57,NE,53,0.0,10.0,74,0.00,,,0.00,VWS V12.07,2013-01-24 08:42:00,
2013-01-24 02:43:00,-9.6,-15.6,30.57,NE,53,0.0,10.0,74,0.00,,,0.00,VWS V12.07,2013-01-24 08:43:00,
2013-01-24 02:44:00,-9.6,-15.6,30.57,NE,53,0.0,10.0,74,0.00,,,0.00,VWS V12.07,2013-01-24 08:44:00,
2013-01-24 02:47:00,-9.8,-15.8,30.59,NE,53,0.0,10.0,74,0.00,,,0.00,VWS V12.07,2013-01-24 08:47:00,
2013-01-24 02:48:00,-9.8,-15.8,30.59,NE,53,0.0,10.0,74,0.00,,,0.00,VWS V12.07,2013-01-24 08:48:00,
2013-01-24 02:49:00,-9.8,-15.8,30.59,NE,53,0.0,10.0,74,0.00,,,0.00,VWS V12.07,2013-01-24 08:49:00,
2013-01-24 02:50:00,-9.3,-15.3,30.57,NE,53,0.0,0.0,74,0.00,,CLR,0.00,VWS V12.07,2013-01-24 08:50:00,
2013-01-24 02:52:00,-10.0,-16.0,30.59,NE,53,0.0,10.0,74,0.00,,,0.00,VWS V12.07,2013-01-24 08:52:00,
2013-01-24 02:53:00,-10.0,-16.0,30.59,NE,53,0.0,10.0,74,0.00,,,0.00,VWS V12.07,2013-01-24 08:53:00,
2013-01-24 02:54:00,-10.0,-16.0,30.59,NE,53,0.0,10.0,74,0.00,,,0.00,VWS V12.07,2013-01-24 08:54:00,
2013-01-24 02:57:00,-10.0,-16.0,30.59,NE,53,0.0,10.0,74,0.00,,,0.00,VWS V12.07,2013-01-24 08:57:00,
2013-01-24 02:58:00,-10.3,-16.5,30.59,NE,53,0.0,10.0,73,0.00,,,0.00,VWS V12.07,2013-01-24 08:58:00,
2013-01-24 03:00:00,-10.3,-16.5,30.59,NE,53,0.0,10.0,73,0.00,,,0.00,VWS V12.07,2013-01-24 09:00:00,
2013-01-24 03:02:00,-10.3,-16.5,30.59,NE,53,0.0,10.0,73,0.00,,,0.00,VWS V12.07,2013-01-24 09:02:00,
2013-01-24 03:04:00,-10.5,-16.8,30.59,NE,53,0.0,10.0,73,0.00,,,0.00,VWS V12.07,2013-01-24 09:04:00,
2013-01-24 03:05:00,-10.5,-16.8,30.59,NE,53,0.0,10.0,73,0.00,,,0.00,VWS V12.07,2013-01-24 09:05:00,
2013-01-24 03:07:00,-10.5,-16.8,30.59,NE,53,0.0,10.0,73,0.00,,,0.00,VWS V12.07,2013-01-24 09:07:00,
2013-01-24 03:08:00,-10.5,-16.8,30.59,NE,53,0.0,10.0,73,0.00,,,0.00,VWS V12.07,2013-01-24 09:08:00,
2013-01-24 03:09:00,-10.7,-16.9,30.59,NE,53,0.0,10.0,73,0.00,,,0.00,VWS V12.07,2013-01-24 09:09:00,
2013-01-24 03:10:00,-10.7,-16.9,30.59,NE,53,0.0,10.0,73,0.00,,,0.00,VWS V12.07,2013-01-24 09:10:00,
2013-01-24 03:12:00,-10.7,-16.9,30.59,NE,53,0.0,10.0,73,0.00,,,0.00,VWS V12.07,2013-01-24 09:12:00,
2013-01-24 03:13:00,-10.7,-16.9,30.59,NE,53,0.0,10.0,73,0.00,,,0.00,VWS V12.07,2013-01-24 09:13:00,
2013-01-24 03:14:00,-10.7,-16.9,30.59,NE,53,0.0,10.0,73,0.00,,,0.00,VWS V12.07,2013-01-24 09:14:00,
2013-01-24 03:15:00,-10.7,-16.9,30.60,NE,53,0.0,10.0,73,0.00,,,0.00,VWS V12.07,2013-01-24 09:15:00,
2013-01-24 03:17:00,-11.0,-17.2,30.60,NE,53,0.0,10.0,73,0.00,,,0.00,VWS V12.07,2013-01-24 09:17:00,
2013-01-24 03:18:00,-11.0,-17.2,30.60,NE,53,0.0,10.0,73,0.00,,,0.00,VWS V12.07,2013-01-24 09:18:00,
2013-01-24 03:20:00,-11.0,-17.2,30.60,NE,53,0.0,10.0,73,0.00,,,0.00,VWS V12.07,2013-01-24 09:20:00,
2013-01-24 03:22:00,-11.2,-17.4,30.60,NE,53,0.0,10.0,73,0.00,,,0.00,VWS V12.07,2013-01-24 09:22:00,
2013-01-24 03:23:00,-11.2,-17.4,30.60,NE,53,0.0,10.0,73,0.00,,,0.00,VWS V12.07,2013-01-24 09:23:00,
2013-01-24 03:25:00,-11.2,-17.4,30.60,NE,53,0.0,10.0,73,0.00,,,0.00,VWS V12.07,2013-01-24 09:25:00,
2013-01-24 03:28:00,-11.2,-17.4,30.60,NE,53,0.0,10.0,73,0.00,,,0.00,VWS V12.07,2013-01-24 09:28:00,
2013-01-24 03:30:00,-11.5,-17.7,30.60,NE,53,0.0,10.0,73,0.00,,,0.00,VWS V12.07,2013-01-24 09:30:00,
2013-01-24 03:31:00,-11.5,-17.7,30.60,NE,53,0.0,10.0,73,0.00,,,0.00,VWS V12.07,2013-01-24 09:31:00,
2013-01-24 03:33:00,-11.5,-17.7,30.60,NE,53,0.0,10.0,73,0.00,,,0.00,VWS V12.07,2013-01-24 09:33:00,
2013-01-24 03:35:00,-11.7,-17.9,30.60,NE,53,0.0,10.0,73,0.00,,,0.00,VWS V12.07,2013-01-24 09:35:00,
2013-01-24 03:36:00,-11.7,-17.9,30.60,NE,53,0.0,10.0,73,0.00,,,0.00,VWS V12.07,2013-01-24 09:36:00,
2013-01-24 03:39:00,-11.7,-17.9,30.60,NE,53,0.0,10.0,73,0.00,,,0.00,VWS V12.07,2013-01-24 09:39:00,
2013-01-24 03:40:00,-11.7,-17.9,30.60,NE,53,0.0,10.0,73,0.00,,,0.00,VWS V12.07,2013-01-24 09:40:00,
2013-01-24 03:41:00,-11.7,-17.9,30.60,NE,53,0.0,10.0,73,0.00,,,0.00,VWS V12.07,2013-01-24 09:41:00,
2013-01-24 03:44:00,-12.0,-18.2,30.60,NE,53,0.0,10.0,73,0.00,,,0.00,VWS V12.07,2013-01-24 09:44:00,
2013-01-24 03:46:00,-12.0,-18.5,30.60,NE,53,0.0,10.0,72,0.00,,,0.00,VWS V12.07,2013-01-24 09:46:00,
2013-01-24 03:49:00,-12.0,-18.5,30.60,NE,53,0.0,10.0,72,0.00,,,0.00,VWS V12.07,2013-01-24 09:49:00,
2013-01-24 03:50:00,-11.7,-17.9,30.60,NE,53,0.0,0.0,73,0.00,,CLR,0.00,VWS V12.07,2013-01-24 09:50:00,
2013-01-24 03:51:00,-12.2,-18.7,30.60,NE,53,0.0,10.0,72,0.00,,,0.00,VWS V12.07,2013-01-24 09:51:00,
2013-01-24 03:54:00,-12.2,-18.7,30.60,NE,53,0.0,10.0,72,0.00,,,0.00,VWS V12.07,2013-01-24 09:54:00,
2013-01-24 03:55:00,-12.2,-18.7,30.60,NE,53,0.0,10.0,72,0.00,,,0.00,VWS V12.07,2013-01-24 09:55:00,
2013-01-24 03:56:00,-12.5,-19.0,30.60,NE,53,0.0,10.0,72,0.00,,,0.00,VWS V12.07,2013-01-24 09:56:00,
2013-01-24 03:57:00,-12.5,-19.0,30.60,NE,53,0.0,10.0,72,0.00,,,0.00,VWS V12.07,2013-01-24 09:57:00,
2013-01-24 04:00:00,-12.5,-19.0,30.60,NE,53,0.0,10.0,72,0.00,,,0.00,VWS V12.07,2013-01-24 10:00:00,
2013-01-24 04:01:00,-12.5,-19.0,30.60,NE,53,0.0,10.0,72,0.00,,,0.00,VWS V12.07,2013-01-24 10:01:00,
2013-01-24 04:02:00,-12.5,-19.0,30.60,NE,53,0.0,10.0,72,0.00,,,0.00,VWS V12.07,2013-01-24 10:02:00,
2013-01-24 04:05:00,-12.8,-19.2,30.60,NE,53,0.0,10.0,72,0.00,,,0.00,VWS V12.07,2013-01-24 10:05:00,
2013-01-24 04:06:00,-12.8,-19.2,30.60,NE,53,0.0,10.0,72,0.00,,,0.00,VWS V12.07,2013-01-24 10:06:00,
2013-01-24 04:07:00,-12.8,-19.2,30.60,NE,53,0.0,10.0,72,0.00,,,0.00,VWS V12.07,2013-01-24 10:07:00,
2013-01-24 04:10:00,-12.8,-19.2,30.60,NE,53,0.0,10.0,72,0.00,,,0.00,VWS V12.07,2013-01-24 10:10:00,
2013-01-24 04:12:00,-12.8,-19.2,30.60,NE,53,0.0,10.0,72,0.00,,,0.00,VWS V12.07,2013-01-24 10:12:00,
2013-01-24 04:16:00,-13.0,-19.4,30.61,NE,53,0.0,10.0,72,0.00,,,0.00,VWS V12.07,2013-01-24 10:16:00,
2013-01-24 04:17:00,-13.0,-19.4,30.61,NE,53,0.0,10.0,72,0.00,,,0.00,VWS V12.07,2013-01-24 10:17:00,
2013-01-24 04:18:00,-13.0,-19.4,30.61,NE,53,0.0,10.0,72,0.00,,,0.00,VWS V12.07,2013-01-24 10:18:00,
2013-01-24 04:20:00,-12.8,-19.2,30.60,NE,53,0.0,0.0,72,0.00,,CLR,0.00,VWS V12.07,2013-01-24 10:20:00,
2013-01-24 04:21:00,-13.0,-19.4,30.61,NE,53,0.0,10.0,72,0.00,,,0.00,VWS V12.07,2013-01-24 10:21:00,
2013-01-24 04:22:00,-13.0,-19.4,30.61,NE,53,0.0,10.0,72,0.00,,,0.00,VWS V12.07,2013-01-24 10:22:00,
2013-01-24 04:23:00,-13.0,-19.4,30.61,NE,53,0.0,10.0,72,0.00,,,0.00,VWS V12.07,2013-01-24 10:23:00,
2013-01-24 04:26:00,-13.0,-19.4,30.61,NE,53,0.0,10.0,72,0.00,,,0.00,VWS V12.07,2013-01-24 10:26:00,
2013-01-24 04:27:00,-13.0,-19.4,30.61,NE,53,0.0,10.0,72,0.00,,,0.00,VWS V12.07,2013-01-24 10:27:00,
2013-01-24 04:28:00,-13.3,-19.7,30.61,NE,53,0.0,10.0,72,0.00,,,0.00,VWS V12.07,2013-01-24 10:28:00,
2013-01-24 04:30:00,-13.0,-19.4,30.61,NE,53,0.0,0.0,72,0.00,,CLR,0.00,VWS V12.07,2013-01-24 10:30:00,
2013-01-24 04:31:00,-13.3,-19.7,30.61,NE,53,0.0,10.0,72,0.00,,,0.00,VWS V12.07,2013-01-24 10:31:00,
2013-01-24 04:32:00,-13.3,-19.7,30.61,NE,53,0.0,10.0,72,0.00,,,0.00,VWS V12.07,2013-01-24 10:32:00,
2013-01-24 04:33:00,-13.3,-19.7,30.61,NE,53,0.0,10.0,72,0.00,,,0.00,VWS V12.07,2013-01-24 10:33:00,
2013-01-24 04:34:00,-13.3,-19.7,30.61,NE,53,0.0,10.0,72,0.00,,,0.00,VWS V12.07,2013-01-24 10:34:00,
2013-01-24 04:36:00,-13.3,-19.7,30.61,NE,53,0.0,10.0,72,0.00,,,0.00,VWS V12.07,2013-01-24 10:36:00,
2013-01-24 04:37:00,-13.3,-19.7,30.61,NE,53,0.0,10.0,72,0.00,,,0.00,VWS V12.07,2013-01-24 10:37:00,
2013-01-24 04:38:00,-13.3,-19.7,30.61,NE,53,0.0,10.0,72,0.00,,,0.00,VWS V12.07,2013-01-24 10:38:00,
2013-01-24 04:39:00,-13.3,-19.7,30.61,NE,53,0.0,10.0,72,0.00,,,0.00,VWS V12.07,2013-01-24 10:39:00,
2013-01-24 04:40:00,-13.0,-19.4,30.61,NE,53,0.0,0.0,72,0.00,,CLR,0.00,VWS V12.07,2013-01-24 10:40:00,
2013-01-24 04:41:00,-13.3,-19.7,30.61,NE,53,0.0,10.0,72,0.00,,,0.00,VWS V12.07,2013-01-24 10:41:00,
2013-01-24 04:43:00,-13.3,-19.7,30.61,NE,53,0.0,10.0,72,0.00,,,0.00,VWS V12.07,2013-01-24 10:43:00,
2013-01-24 04:44:00,-13.3,-19.7,30.61,NE,53,0.0,10.0,72,0.00,,,0.00,VWS V12.07,2013-01-24 10:44:00,
2013-01-24 04:47:00,-13.3,-19.7,30.62,NE,53,0.0,10.0,72,0.00,,,0.00,VWS V12.07,2013-01-24 10:47:00,
2013-01-24 04:48:00,-13.3,-19.7,30.62,NE,53,0.0,10.0,72,0.00,,,0.00,VWS V12.07,2013-01-24 10:48:00,
2013-01-24 04:50:00,-13.3,-19.7,30.62,NE,53,0.0,10.0,72,0.00,,,0.00,VWS V12.07,2013-01-24 10:50:00,
2013-01-24 04:52:00,-13.3,-19.7,30.62,NE,53,0.0,10.0,72,0.00,,,0.00,VWS V12.07,2013-01-24 10:52:00,
2013-01-24 04:53:00,-13.3,-19.7,30.62,NE,53,0.0,10.0,72,0.00,,,0.00,VWS V12.07,2013-01-24 10:53:00,
2013-01-24 04:54:00,-13.3,-19.7,30.62,NE,53,0.0,10.0,72,0.00,,,0.00,VWS V12.07,2013-01-24 10:54:00,
2013-01-24 04:55:00,-13.3,-19.7,30.62,NE,53,0.0,10.0,72,0.00,,,0.00,VWS V12.07,2013-01-24 10:55:00,
2013-01-24 04:57:00,-13.3,-19.7,30.62,NE,53,0.0,10.0,72,0.00,,,0.00,VWS V12.07,2013-01-24 10:57:00,
2013-01-24 04:58:00,-13.5,-19.9,30.62,NE,53,0.0,10.0,72,0.00,,,0.00,VWS V12.07,2013-01-24 10:58:00,
2013-01-24 04:59:00,-13.5,-19.9,30.62,NE,53,0.0,10.0,72,0.00,,,0.00,VWS V12.07,2013-01-24 10:59:00,
2013-01-24 05:00:00,-13.5,-19.9,30.64,NE,53,0.0,10.0,72,0.00,,,0.00,VWS V12.07,2013-01-24 11:00:00,
2013-01-24 05:02:00,-13.5,-20.2,30.64,NE,53,0.0,10.0,71,0.00,,,0.00,VWS V12.07,2013-01-24 11:02:00,
2013-01-24 05:04:00,-13.5,-20.2,30.64,NE,53,0.0,10.0,71,0.00,,,0.00,VWS V12.07,2013-01-24 11:04:00,
2013-01-24 05:05:00,-13.5,-20.2,30.64,NE,53,0.0,10.0,71,0.00,,,0.00,VWS V12.07,2013-01-24 11:05:00,
2013-01-24 05:07:00,-13.8,-20.5,30.64,NE,53,0.0,10.0,71,0.00,,,0.00,VWS V12.07,2013-01-24 11:07:00,
2013-01-24 05:09:00,-13.8,-20.5,30.64,NE,53,0.0,10.0,71,0.00,,,0.00,VWS V12.07,2013-01-24 11:09:00,
2013-01-24 05:10:00,-13.8,-20.5,30.64,NE,53,0.0,10.0,71,0.00,,,0.00,VWS V12.07,2013-01-24 11:10:00,
2013-01-24 05:13:00,-14.0,-20.9,30.64,NE,53,0.0,10.0,70,0.00,,,0.00,VWS V12.07,2013-01-24 11:13:00,
2013-01-24 05:14:00,-14.0,-20.9,30.64,NE,53,0.0,10.0,70,0.00,,,0.00,VWS V12.07,2013-01-24 11:14:00,
2013-01-24 05:15:00,-14.3,-21.2,30.63,NE,53,0.0,10.0,70,0.00,,,0.00,VWS V12.07,2013-01-24 11:15:00,
2013-01-24 05:18:00,-14.6,-21.5,30.63,NE,53,0.0,10.0,70,0.00,,,0.00,VWS V12.07,2013-01-24 11:18:00,
2013-01-24 05:19:00,-14.6,-21.2,30.63,NE,53,0.0,10.0,71,0.00,,,0.00,VWS V12.07,2013-01-24 11:19:00,
2013-01-24 05:20:00,-14.6,-21.2,30.63,NE,53,0.0,10.0,71,0.00,,,0.00,VWS V12.07,2013-01-24 11:20:00,
2013-01-24 05:23:00,-14.6,-21.2,30.63,NE,53,0.0,10.0,71,0.00,,,0.00,VWS V12.07,2013-01-24 11:23:00,
2013-01-24 05:24:00,-14.6,-21.2,30.63,NE,53,0.0,10.0,71,0.00,,,0.00,VWS V12.07,2013-01-24 11:24:00,
2013-01-24 05:26:00,-14.6,-21.2,30.63,NE,53,0.0,10.0,71,0.00,,,0.00,VWS V12.07,2013-01-24 11:26:00,
2013-01-24 05:28:00,-14.6,-21.2,30.63,NE,53,0.0,10.0,71,0.00,,,0.00,VWS V12.07,2013-01-24 11:28:00,
2013-01-24 05:29:00,-14.6,-21.2,30.63,NE,53,0.0,10.0,71,0.00,,,0.00,VWS V12.07,2013-01-24 11:29:00,
2013-01-24 05:30:00,-14.3,-21.2,30.63,NE,53,0.0,0.0,70,0.00,,CLR,0.00,VWS V12.07,2013-01-24 11:30:00,
2013-01-24 05:31:00,-14.6,-21.2,30.64,NE,53,0.0,10.0,71,0.00,,,0.00,VWS V12.07,2013-01-24 11:31:00,
2013-01-24 05:33:00,-14.6,-21.2,30.64,NE,53,0.0,10.0,71,0.00,,,0.00,VWS V12.07,2013-01-24 11:33:00,
2013-01-24 05:35:00,-14.6,-21.2,30.64,NE,53,0.0,10.0,71,0.00,,,0.00,VWS V12.07,2013-01-24 11:35:00,
2013-01-24 05:36:00,-14.6,-21.2,30.64,NE,53,0.0,10.0,71,0.00,,,0.00,VWS V12.07,2013-01-24 11:36:00,
2013-01-24 05:39:00,-14.6,-21.2,30.64,NE,53,0.0,10.0,71,0.00,,,0.00,VWS V12.07,2013-01-24 11:39:00,
2013-01-24 05:40:00,-14.6,-21.2,30.64,NE,53,0.0,10.0,71,0.00,,,0.00,VWS V12.07,2013-01-24 11:40:00,
2013-01-24 05:41:00,-14.6,-21.2,30.64,NE,53,0.0,10.0,71,0.00,,,0.00,VWS V12.07,2013-01-24 11:41:00,
2013-01-24 05:44:00,-14.3,-20.7,30.64,NE,53,0.0,10.0,72,0.00,,,0.00,VWS V12.07,2013-01-24 11:44:00,
2013-01-24 05:45:00,-14.3,-20.7,30.64,NE,53,0.0,10.0,72,0.00,,,0.00,VWS V12.07,2013-01-24 11:45:00,
2013-01-24 05:46:00,-14.3,-20.7,30.64,NE,53,0.0,10.0,72,0.00,,,0.00,VWS V12.07,2013-01-24 11:46:00,
2013-01-24 05:47:00,-14.3,-20.7,30.64,NE,53,0.0,10.0,72,0.00,,,0.00,VWS V12.07,2013-01-24 11:47:00,
2013-01-24 05:50:00,-14.3,-20.7,30.64,NE,53,0.0,10.0,72,0.00,,,0.00,VWS V12.07,2013-01-24 11:50:00,
2013-01-24 05:51:00,-14.3,-21.0,30.64,NE,53,0.0,10.0,71,0.00,,,0.00,VWS V12.07,2013-01-24 11:51:00,
2013-01-24 05:52:00,-14.3,-21.0,30.64,NE,53,0.0,10.0,71,0.00,,,0.00,VWS V12.07,2013-01-24 11:52:00,
2013-01-24 05:55:00,-14.6,-21.2,30.64,NE,53,0.0,10.0,71,0.00,,,0.00,VWS V12.07,2013-01-24 11:55:00,
2013-01-24 05:56:00,-14.6,-21.2,30.64,NE,53,0.0,10.0,71,0.00,,,0.00,VWS V12.07,2013-01-24 11:56:00,
2013-01-24 05:57:00,-14.6,-21.2,30.64,NE,53,0.0,10.0,71,0.00,,,0.00,VWS V12.07,2013-01-24 11:57:00,
2013-01-24 06:00:00,-14.6,-21.2,30.64,NE,53,0.0,10.0,71,0.00,,,0.00,VWS V12.07,2013-01-24 12:00:00,
2013-01-24 06:01:00,-14.6,-21.2,30.64,NE,53,0.0,10.0,71,0.00,,,0.00,VWS V12.07,2013-01-24 12:01:00,
2013-01-24 06:02:00,-14.6,-21.2,30.64,NE,53,0.0,10.0,71,0.00,,,0.00,VWS V12.07,2013-01-24 12:02:00,
2013-01-24 06:06:00,-14.8,-21.4,30.64,NE,53,0.0,10.0,71,0.00,,,0.00,VWS V12.07,2013-01-24 12:06:00,
2013-01-24 06:07:00,-14.8,-21.4,30.64,NE,53,0.0,10.0,71,0.00,,,0.00,VWS V12.07,2013-01-24 12:07:00,
2013-01-24 06:08:00,-14.8,-21.4,30.64,NE,53,0.0,10.0,71,0.00,,,0.00,VWS V12.07,2013-01-24 12:08:00,
2013-01-24 06:10:00,-14.6,-21.2,30.64,NE,53,0.0,0.0,71,0.00,,CLR,0.00,VWS V12.07,2013-01-24 12:10:00,
2013-01-24 06:11:00,-14.8,-21.4,30.64,NE,53,0.0,10.0,71,0.00,,,0.00,VWS V12.07,2013-01-24 12:11:00,
2013-01-24 06:12:00,-14.8,-21.4,30.64,NE,53,0.0,10.0,71,0.00,,,0.00,VWS V12.07,2013-01-24 12:12:00,
2013-01-24 06:13:00,-14.8,-21.4,30.64,NE,53,0.0,10.0,71,0.00,,,0.00,VWS V12.07,2013-01-24 12:13:00,
2013-01-24 06:17:00,-14.8,-21.2,30.66,NE,53,0.0,10.0,72,0.00,,,0.00,VWS V12.07,2013-01-24 12:17:00,
2013-01-24 06:18:00,-14.8,-21.4,30.66,NE,53,0.0,10.0,71,0.00,,,0.00,VWS V12.07,2013-01-24 12:18:00,
2013-01-24 06:20:00,-14.8,-21.4,30.64,NE,53,0.0,0.0,71,0.00,,CLR,0.00,VWS V12.07,2013-01-24 12:20:00,
2013-01-24 06:22:00,-14.8,-21.4,30.66,NE,53,0.0,10.0,71,0.00,,,0.00,VWS V12.07,2013-01-24 12:22:00,
2013-01-24 06:23:00,-14.8,-21.4,30.66,NE,53,0.0,10.0,71,0.00,,,0.00,VWS V12.07,2013-01-24 12:23:00,
2013-01-24 06:27:00,-15.1,-21.7,30.66,NE,53,0.0,10.0,71,0.00,,,0.00,VWS V12.07,2013-01-24 12:27:00,
2013-01-24 06:28:00,-15.1,-21.7,30.66,NE,53,0.0,10.0,71,0.00,,,0.00,VWS V12.07,2013-01-24 12:28:00,
2013-01-24 06:29:00,-15.1,-21.7,30.66,NE,53,0.0,10.0,71,0.00,,,0.00,VWS V12.07,2013-01-24 12:29:00,
2013-01-24 06:30:00,-14.8,-21.4,30.66,NE,53,0.0,0.0,71,0.00,,CLR,0.00,VWS V12.07,2013-01-24 12:30:00,
2013-01-24 06:32:00,-15.1,-21.7,30.66,NE,53,0.0,10.0,71,0.00,,,0.00,VWS V12.07,2013-01-24 12:32:00,
2013-01-24 06:33:00,-15.1,-21.7,30.66,NE,53,0.0,10.0,71,0.00,,,0.00,VWS V12.07,2013-01-24 12:33:00,
2013-01-24 06:34:00,-15.1,-21.7,30.66,NE,53,0.0,10.0,71,0.00,,,0.00,VWS V12.07,2013-01-24 12:34:00,
2013-01-24 06:37:00,-15.1,-21.7,30.66,NE,53,0.0,10.0,71,0.00,,,0.00,VWS V12.07,2013-01-24 12:37:00,
2013-01-24 06:38:00,-15.1,-21.7,30.66,NE,53,0.0,10.0,71,0.00,,,0.00,VWS V12.07,2013-01-24 12:38:00,
2013-01-24 06:39:00,-15.1,-21.7,30.66,NE,53,0.0,10.0,71,0.00,,,0.00,VWS V12.07,2013-01-24 12:39:00,
2013-01-24 06:40:00,-14.8,-21.4,30.66,NE,53,0.0,0.0,71,0.00,,CLR,0.00,VWS V12.07,2013-01-24 12:40:00,
2013-01-24 06:43:00,-15.3,-21.9,30.66,NE,53,0.0,10.0,71,0.00,,,0.00,VWS V12.07,2013-01-24 12:43:00,
2013-01-24 06:44:00,-15.3,-21.9,30.66,NE,53,0.0,10.0,71,0.00,,,0.00,VWS V12.07,2013-01-24 12:44:00,
2013-01-24 06:48:00,-15.3,-22.2,30.66,NE,53,0.0,10.0,70,0.00,,,0.00,VWS V12.07,2013-01-24 12:48:00,
2013-01-24 06:49:00,-15.6,-22.5,30.66,NE,53,0.0,10.0,70,0.00,,,0.00,VWS V12.07,2013-01-24 12:49:00,
2013-01-24 06:50:00,-15.1,-21.7,30.66,NE,53,0.0,0.0,71,0.00,,CLR,0.00,VWS V12.07,2013-01-24 12:50:00,
2013-01-24 06:53:00,-15.6,-22.5,30.66,NE,53,0.0,10.0,70,0.00,,,0.00,VWS V12.07,2013-01-24 12:53:00,
2013-01-24 06:54:00,-15.8,-22.7,30.66,NE,53,0.0,10.0,70,0.00,,,0.00,VWS V12.07,2013-01-24 12:54:00,
2013-01-24 06:55:00,-15.8,-22.7,30.66,NE,53,0.0,10.0,70,0.00,,,0.00,VWS V12.07,2013-01-24 12:55:00,
2013-01-24 06:58:00,-15.8,-22.7,30.66,NE,53,0.0,10.0,70,0.00,,,0.00,VWS V12.07,2013-01-24 12:58:00,
2013-01-24 06:59:00,-16.1,-23.0,30.66,NE,53,0.0,10.0,70,0.00,,,0.00,VWS V12.07,2013-01-24 12:59:00,
2013-01-24 07:00:00,-16.1,-23.0,30.67,NE,53,0.0,10.0,70,0.00,,,0.00,VWS V12.07,2013-01-24 13:00:00,
2013-01-24 07:03:00,-16.4,-23.5,30.67,NE,53,0.0,10.0,69,0.00,,,0.00,VWS V12.07,2013-01-24 13:03:00,
2013-01-24 07:05:00,-16.4,-23.3,30.67,NE,53,0.0,10.0,70,0.00,,,0.00,VWS V12.07,2013-01-24 13:05:00,
2013-01-24 07:06:00,-16.4,-23.3,30.67,NE,53,0.0,10.0,70,0.00,,,0.00,VWS V12.07,2013-01-24 13:06:00,
2013-01-24 07:08:00,-16.1,-23.0,30.67,NE,53,0.0,10.0,70,0.00,,,0.00,VWS V12.07,2013-01-24 13:08:00,
2013-01-24 07:09:00,-16.1,-22.7,30.67,NE,53,0.0,10.0,71,0.00,,,0.00,VWS V12.07,2013-01-24 13:09:00,
2013-01-24 07:10:00,-16.1,-23.0,30.67,NE,53,0.0,10.0,70,0.00,,,0.00,VWS V12.07,2013-01-24 13:10:00,
2013-01-24 07:11:00,-16.1,-23.0,30.67,NE,53,0.0,10.0,70,0.00,,,0.00,VWS V12.07,2013-01-24 13:11:00,
2013-01-24 07:14:00,-16.1,-23.0,30.67,NE,53,0.0,10.0,70,0.00,,,0.00,VWS V12.07,2013-01-24 13:14:00,
2013-01-24 07:15:00,-16.1,-23.0,30.67,NE,53,0.0,10.0,70,0.00,,,0.00,VWS V12.07,2013-01-24 13:15:00,
2013-01-24 07:16:00,-16.4,-23.3,30.67,NE,53,0.0,10.0,70,0.00,,,0.00,VWS V12.07,2013-01-24 13:16:00,
2013-01-24 07:19:00,-16.4,-23.5,30.67,NE,53,0.0,10.0,69,0.00,,,0.00,VWS V12.07,2013-01-24 13:19:00,
2013-01-24 07:20:00,-16.4,-23.5,30.67,NE,53,0.0,10.0,69,0.00,,,0.00,VWS V12.07,2013-01-24 13:20:00,
2013-01-24 07:21:00,-16.6,-23.7,30.67,NE,53,0.0,10.0,69,0.00,,,0.00,VWS V12.07,2013-01-24 13:21:00,
2013-01-24 07:24:00,-16.6,-23.7,30.67,NE,53,0.0,10.0,69,0.00,,,0.00,VWS V12.07,2013-01-24 13:24:00,
2013-01-24 07:25:00,-16.9,-24.0,30.67,NE,53,0.0,10.0,69,0.00,,,0.00,VWS V12.07,2013-01-24 13:25:00,
2013-01-24 07:27:00,-16.9,-24.0,30.67,NE,53,0.0,10.0,69,0.00,,,0.00,VWS V12.07,2013-01-24 13:27:00,
2013-01-24 07:29:00,-16.9,-24.0,30.67,NE,53,0.0,10.0,69,0.00,,,0.00,VWS V12.07,2013-01-24 13:29:00,
2013-01-24 07:30:00,-16.9,-24.0,30.67,NE,53,0.0,10.0,69,0.00,,,0.00,VWS V12.07,2013-01-24 13:30:00,
2013-01-24 07:31:00,-16.9,-24.0,30.68,NE,53,0.0,10.0,69,0.00,,,0.00,VWS V12.07,2013-01-24 13:31:00,
2013-01-24 07:32:00,-16.9,-24.0,30.68,NE,53,0.0,10.0,69,0.00,,,0.00,VWS V12.07,2013-01-24 13:32:00,
2013-01-24 07:35:00,-16.9,-23.7,30.68,NE,53,0.0,10.0,70,0.00,,,0.00,VWS V12.07,2013-01-24 13:35:00,
2013-01-24 07:36:00,-16.9,-23.7,30.68,NE,53,0.0,10.0,70,0.00,,,0.00,VWS V12.07,2013-01-24 13:36:00,
2013-01-24 07:37:00,-16.9,-23.7,30.68,NE,53,0.0,10.0,70,0.00,,,0.00,VWS V12.07,2013-01-24 13:37:00,
2013-01-24 07:40:00,-16.9,-23.7,30.68,NE,53,0.0,10.0,70,0.00,,,0.00,VWS V12.07,2013-01-24 13:40:00,
2013-01-24 07:41:00,-16.9,-23.7,30.68,NE,53,0.0,10.0,70,0.00,,,0.00,VWS V12.07,2013-01-24 13:41:00,
2013-01-24 07:43:00,-16.6,-23.5,30.68,NE,53,0.0,10.0,70,0.00,,,0.00,VWS V12.07,2013-01-24 13:43:00,
2013-01-24 07:45:00,-16.9,-23.7,30.68,NE,53,0.0,10.0,70,0.00,,,0.00,VWS V12.07,2013-01-24 13:45:00,
2013-01-24 07:46:00,-16.9,-23.7,30.69,NE,53,0.0,10.0,70,0.00,,,0.00,VWS V12.07,2013-01-24 13:46:00,
2013-01-24 07:48:00,-16.9,-23.7,30.69,NE,53,0.0,10.0,70,0.00,,,0.00,VWS V12.07,2013-01-24 13:48:00,
2013-01-24 07:50:00,-16.9,-23.7,30.69,NE,53,0.0,10.0,70,0.00,,,0.00,VWS V12.07,2013-01-24 13:50:00,
2013-01-24 07:51:00,-16.9,-23.7,30.69,NE,53,0.0,10.0,70,0.00,,,0.00,VWS V12.07,2013-01-24 13:51:00,
2013-01-24 07:53:00,-16.9,-23.7,30.69,NE,53,0.0,10.0,70,0.00,,,0.00,VWS V12.07,2013-01-24 13:53:00,
2013-01-24 07:55:00,-16.6,-23.5,30.69,NE,53,0.0,10.0,70,0.00,,,0.00,VWS V12.07,2013-01-24 13:55:00,
2013-01-24 07:57:00,-16.6,-23.5,30.69,NE,53,0.0,10.0,70,0.00,,,0.00,VWS V12.07,2013-01-24 13:57:00,
2013-01-24 07:59:00,-16.6,-23.5,30.69,NE,53,0.0,10.0,70,0.00,,,0.00,VWS V12.07,2013-01-24 13:59:00,
2013-01-24 08:00:00,-16.9,-23.7,30.69,NE,53,0.0,0.0,70,0.00,,CLR,0.00,VWS V12.07,2013-01-24 14:00:00,
2013-01-24 08:01:00,-16.6,-23.5,30.70,NE,53,0.0,10.0,70,0.00,,,0.00,VWS V12.07,2013-01-24 14:01:00,
2013-01-24 08:02:00,-16.4,-23.3,30.70,NE,53,0.0,10.0,70,0.00,,,0.00,VWS V12.07,2013-01-24 14:02:00,
2013-01-24 08:04:00,-16.4,-23.3,30.70,NE,53,0.0,10.0,70,0.00,,,0.00,VWS V12.07,2013-01-24 14:04:00,
2013-01-24 08:06:00,-16.4,-23.3,30.70,NE,53,0.0,10.0,70,0.00,,,0.00,VWS V12.07,2013-01-24 14:06:00,
2013-01-24 08:07:00,-16.1,-23.0,30.70,NE,53,0.0,10.0,70,0.00,,,0.00,VWS V12.07,2013-01-24 14:07:00,
2013-01-24 08:08:00,-16.1,-23.0,30.70,NE,53,0.0,10.0,70,0.00,,,0.00,VWS V12.07,2013-01-24 14:08:00,
2013-01-24 08:09:00,-16.1,-23.0,30.70,NE,53,0.0,10.0,70,0.00,,,0.00,VWS V12.07,2013-01-24 14:09:00,
2013-01-24 08:10:00,-16.6,-23.5,30.69,NE,53,0.0,0.0,70,0.00,,CLR,0.00,VWS V12.07,2013-01-24 14:10:00,
2013-01-24 08:11:00,-16.1,-23.0,30.70,NE,53,0.0,10.0,70,0.00,,,0.00,VWS V12.07,2013-01-24 14:11:00,
2013-01-24 08:13:00,-15.8,-22.7,30.70,NE,53,0.0,10.0,70,0.00,,,0.00,VWS V12.07,2013-01-24 14:13:00,
2013-01-24 08:14:00,-15.8,-22.7,30.70,NE,53,0.0,10.0,70,0.00,,,0.00,VWS V12.07,2013-01-24 14:14:00,
2013-01-24 08:17:00,-15.8,-22.7,30.70,NE,53,0.0,10.0,70,0.00,,,0.00,VWS V12.07,2013-01-24 14:17:00,
2013-01-24 08:18:00,-15.8,-22.7,30.70,NE,53,0.0,10.0,70,0.00,,,0.00,VWS V12.07,2013-01-24 14:18:00,
2013-01-24 08:19:00,-15.8,-22.7,30.70,NE,53,0.0,10.0,70,0.00,,,0.00,VWS V12.07,2013-01-24 14:19:00,
2013-01-24 08:20:00,-16.4,-23.3,30.70,NE,53,0.0,0.0,70,0.00,,CLR,0.00,VWS V12.07,2013-01-24 14:20:00,
2013-01-24 08:22:00,-15.6,-22.2,30.70,NE,53,0.0,10.0,71,0.00,,,0.00,VWS V12.07,2013-01-24 14:22:00,
2013-01-24 08:23:00,-15.3,-21.9,30.70,NE,53,0.0,10.0,71,0.00,,,0.00,VWS V12.07,2013-01-24 14:23:00,
2013-01-24 08:25:00,-15.1,-21.7,30.70,NE,53,0.0,10.0,71,0.00,,,0.00,VWS V12.07,2013-01-24 14:25:00,
2013-01-24 08:27:00,-15.1,-21.7,30.70,NE,53,0.0,10.0,71,0.00,,,0.00,VWS V12.07,2013-01-24 14:27:00,
2013-01-24 08:28:00,-14.8,-21.4,30.70,NE,53,0.0,10.0,71,0.00,,,0.00,VWS V12.07,2013-01-24 14:28:00,
2013-01-24 08:29:00,-14.8,-21.4,30.70,NE,53,0.0,10.0,71,0.00,,,0.00,VWS V12.07,2013-01-24 14:29:00,
2013-01-24 08:30:00,-14.8,-21.4,30.69,NE,53,0.0,10.0,71,0.00,,,0.00,VWS V12.07,2013-01-24 14:30:00,
2013-01-24 08:32:00,-14.8,-21.4,30.69,NE,53,0.0,10.0,71,0.00,,,0.00,VWS V12.07,2013-01-24 14:32:00,
2013-01-24 08:34:00,-14.6,-21.2,30.69,NE,53,0.0,10.0,71,0.00,,,0.00,VWS V12.07,2013-01-24 14:34:00,
2013-01-24 08:35:00,-14.6,-21.2,30.69,NE,53,0.0,10.0,71,0.00,,,0.00,VWS V12.07,2013-01-24 14:35:00,
2013-01-24 08:38:00,-14.3,-20.7,30.69,NE,53,0.0,10.0,72,0.00,,,0.00,VWS V12.07,2013-01-24 14:38:00,
2013-01-24 08:39:00,-14.0,-20.4,30.69,NE,53,0.0,10.0,72,0.00,,,0.00,VWS V12.07,2013-01-24 14:39:00,
2013-01-24 08:40:00,-14.0,-20.4,30.69,NE,53,0.0,10.0,72,0.00,,,0.00,VWS V12.07,2013-01-24 14:40:00,
2013-01-24 08:43:00,-13.8,-20.2,30.69,NE,53,0.0,10.0,72,0.00,,,0.00,VWS V12.07,2013-01-24 14:43:00,
2013-01-24 08:44:00,-13.8,-20.2,30.69,NE,53,0.0,10.0,72,0.00,,,0.00,VWS V12.07,2013-01-24 14:44:00,
2013-01-24 08:45:00,-13.5,-19.6,30.69,NE,53,0.0,10.0,73,0.00,,,0.00,VWS V12.07,2013-01-24 14:45:00,
2013-01-24 08:49:00,-13.3,-19.7,30.69,NE,53,0.0,10.0,72,0.00,,,0.00,VWS V12.07,2013-01-24 14:49:00,
2013-01-24 08:50:00,-13.3,-19.7,30.69,NE,53,0.0,10.0,72,0.00,,,0.00,VWS V12.07,2013-01-24 14:50:00,
2013-01-24 08:51:00,-13.3,-20.0,30.69,NE,53,0.0,10.0,71,0.00,,,0.00,VWS V12.07,2013-01-24 14:51:00,
2013-01-24 08:54:00,-13.5,-20.2,30.69,NE,53,0.0,0.0,71,0.00,,CLR,0.00,VWS V12.07,2013-01-24 14:54:00,
2013-01-24 08:55:00,-13.8,-20.8,30.69,NE,53,0.0,0.0,70,0.00,,CLR,0.00,VWS V12.07,2013-01-24 14:55:00,
2013-01-24 08:56:00,-13.8,-20.8,30.69,NE,53,0.0,0.0,70,0.00,,CLR,0.00,VWS V12.07,2013-01-24 14:56:00,
2013-01-24 08:59:00,-13.8,-20.5,30.69,NE,53,0.0,0.0,71,0.00,,CLR,0.00,VWS V12.07,2013-01-24 14:59:00,
2013-01-24 09:00:00,-13.8,-20.5,30.70,NE,53,0.0,0.0,71,0.00,,CLR,0.00,VWS V12.07,2013-01-24 15:00:00,
2013-01-24 09:01:00,-13.5,-20.2,30.70,NE,53,0.0,0.0,71,0.00,,CLR,0.00,VWS V12.07,2013-01-24 15:01:00,
2013-01-24 09:05:00,-13.3,-19.7,30.70,NE,53,0.0,1.0,72,0.00,,CLR,0.00,VWS V12.07,2013-01-24 15:05:00,
2013-01-24 09:06:00,-13.3,-20.0,30.70,NE,53,0.0,1.0,71,0.00,,CLR,0.00,VWS V12.07,2013-01-24 15:06:00,
2013-01-24 09:10:00,-13.0,-19.4,30.70,NE,53,0.0,0.0,72,0.00,,CLR,0.00,VWS V12.07,2013-01-24 15:10:00,
2013-01-24 09:11:00,-13.0,-19.4,30.70,NE,53,0.0,0.0,72,0.00,,CLR,0.00,VWS V12.07,2013-01-24 15:11:00,
2013-01-24 09:15:00,-12.2,-18.4,30.68,NE,53,0.0,0.0,73,0.00,,CLR,0.00,VWS V12.07,2013-01-24 15:15:00,
2013-01-24 09:16:00,-12.2,-18.4,30.68,NE,53,0.0,0.0,73,0.00,,CLR,0.00,VWS V12.07,2013-01-24 15:16:00,
2013-01-24 09:17:00,-12.0,-17.9,30.68,NE,53,0.0,0.0,74,0.00,,CLR,0.00,VWS V12.07,2013-01-24 15:17:00,
2013-01-24 09:21:00,-11.2,-17.2,30.68,NE,53,0.0,0.0,74,0.00,,CLR,0.00,VWS V12.07,2013-01-24 15:21:00,
2013-01-24 09:22:00,-11.0,-17.0,30.68,NE,53,0.0,0.0,74,0.00,,CLR,0.00,VWS V12.07,2013-01-24 15:22:00,
2013-01-24 09:26:00,-10.7,-16.9,30.68,NE,53,0.0,1.0,73,0.00,,CLR,0.00,VWS V12.07,2013-01-24 15:26:00,
2013-01-24 09:28:00,-10.5,-16.8,30.68,NE,53,0.0,1.0,73,0.00,,CLR,0.00,VWS V12.07,2013-01-24 15:28:00,
2013-01-24 09:31:00,-10.3,-16.5,30.68,NE,53,0.0,1.0,73,0.00,,CLR,0.00,VWS V12.07,2013-01-24 15:31:00,
2013-01-24 09:32:00,-10.0,-16.3,30.68,NE,53,0.0,1.0,73,0.00,,CLR,0.00,VWS V12.07,2013-01-24 15:32:00,
2013-01-24 09:33:00,-9.8,-16.1,30.68,NE,53,0.0,1.0,73,0.00,,CLR,0.00,VWS V12.07,2013-01-24 15:33:00,
2013-01-24 09:36:00,-8.9,-14.9,30.68,NE,53,0.0,1.0,74,0.00,,CLR,0.00,VWS V12.07,2013-01-24 15:36:00,
2013-01-24 09:37:00,-8.9,-14.9,30.68,NE,53,0.0,1.0,74,0.00,,CLR,0.00,VWS V12.07,2013-01-24 15:37:00,
2013-01-24 09:38:00,-8.4,-14.2,30.68,NE,53,0.0,1.0,75,0.00,,CLR,0.00,VWS V12.07,2013-01-24 15:38:00,
2013-01-24 09:41:00,-7.5,-13.3,30.68,NE,53,0.0,1.0,75,0.00,,CLR,0.00,VWS V12.07,2013-01-24 15:41:00,
2013-01-24 09:42:00,-7.2,-13.0,30.68,NE,53,0.0,1.0,75,0.00,,CLR,0.00,VWS V12.07,2013-01-24 15:42:00,
2013-01-24 09:43:00,-6.8,-12.6,30.68,NE,53,0.0,1.0,75,0.00,,CLR,0.00,VWS V12.07,2013-01-24 15:43:00,
2013-01-24 09:47:00,-5.6,-11.5,30.66,NE,53,0.0,1.0,75,0.00,,CLR,0.00,VWS V12.07,2013-01-24 15:47:00,
2013-01-24 09:48:00,-5.2,-11.1,30.66,NE,53,0.0,0.0,75,0.00,,CLR,0.00,VWS V12.07,2013-01-24 15:48:00,
2013-01-24 09:52:00,-4.1,-10.3,30.66,NE,53,0.0,0.0,74,0.00,,CLR,0.00,VWS V12.07,2013-01-24 15:52:00,
2013-01-24 09:54:00,-3.9,-10.4,30.66,NE,53,0.0,0.0,73,0.00,,CLR,0.00,VWS V12.07,2013-01-24 15:54:00,
2013-01-24 09:57:00,-3.7,-10.7,30.66,NE,53,0.0,1.0,71,0.00,,CLR,0.00,VWS V12.07,2013-01-24 15:57:00,
2013-01-24 09:58:00,-3.7,-11.0,30.66,NE,53,0.0,1.0,70,0.00,,CLR,0.00,VWS V12.07,2013-01-24 15:58:00,
2013-01-24 09:59:00,-3.7,-11.0,30.66,NE,53,0.0,1.0,70,0.00,,CLR,0.00,VWS V12.07,2013-01-24 15:59:00,
2013-01-24 10:03:00,-3.7,-11.0,30.66,NE,53,0.0,1.0,70,0.00,,CLR,0.00,VWS V12.07,2013-01-24 16:03:00,
2013-01-24 10:04:00,-3.7,-11.3,30.66,NE,53,0.0,1.0,69,0.00,,CLR,0.00,VWS V12.07,2013-01-24 16:04:00,
2013-01-24 10:08:00,-3.9,-11.8,30.66,NE,53,0.0,1.0,68,0.00,,CLR,0.00,VWS V12.07,2013-01-24 16:08:00,
2013-01-24 10:09:00,-3.9,-11.8,30.66,NE,53,0.0,1.0,68,0.00,,CLR,0.00,VWS V12.07,2013-01-24 16:09:00,
2013-01-24 10:13:00,-3.5,-11.1,30.66,NE,53,0.0,1.0,69,0.00,,CLR,0.00,VWS V12.07,2013-01-24 16:13:00,
2013-01-24 10:14:00,-3.5,-11.1,30.66,NE,53,0.0,1.0,69,0.00,,CLR,0.00,VWS V12.07,2013-01-24 16:14:00,
2013-01-24 10:18:00,-2.6,-9.9,30.65,NE,53,0.0,1.0,70,0.00,,CLR,0.00,VWS V12.07,2013-01-24 16:18:00,
2013-01-24 10:19:00,-2.4,-9.8,30.65,NE,53,0.0,1.0,70,0.00,,CLR,0.00,VWS V12.07,2013-01-24 16:19:00,
2013-01-24 10:20:00,-2.2,-9.9,30.65,NE,53,0.0,1.0,69,0.00,,CLR,0.00,VWS V12.07,2013-01-24 16:20:00,
2013-01-24 10:23:00,-1.8,-9.5,30.65,NE,53,0.0,0.0,69,0.00,,CLR,0.00,VWS V12.07,2013-01-24 16:23:00,
2013-01-24 10:24:00,-1.8,-9.5,30.65,NE,53,0.0,0.0,69,0.00,,CLR,0.00,VWS V12.07,2013-01-24 16:24:00,
2013-01-24 10:25:00,-1.8,-9.5,30.65,NE,53,0.0,0.0,69,0.00,,CLR,0.00,VWS V12.07,2013-01-24 16:25:00,
2013-01-24 10:29:00,-1.8,-10.1,30.65,ENE,58,0.0,1.0,67,0.00,,CLR,0.00,VWS V12.07,2013-01-24 16:29:00,
2013-01-24 10:30:00,-1.8,-10.1,30.65,ENE,58,1.0,1.0,67,0.00,,CLR,0.00,VWS V12.07,2013-01-24 16:30:00,
2013-01-24 10:34:00,-1.8,-9.8,30.65,East,82,1.0,2.0,68,0.00,,CLR,0.00,VWS V12.07,2013-01-24 16:34:00,
2013-01-24 10:35:00,-2.0,-10.3,30.65,South,172,0.0,2.0,67,0.00,,CLR,0.00,VWS V12.07,2013-01-24 16:35:00,
2013-01-24 10:36:00,-2.0,-10.3,30.65,South,172,0.0,2.0,67,0.00,,CLR,0.00,VWS V12.07,2013-01-24 16:36:00,
2013-01-24 10:39:00,-2.2,-10.1,30.65,South,172,0.0,1.0,68,0.00,,CLR,0.00,VWS V12.07,2013-01-24 16:39:00,
2013-01-24 10:40:00,-2.0,-10.0,30.65,South,172,0.0,1.0,68,0.00,,CLR,0.00,VWS V12.07,2013-01-24 16:40:00,
2013-01-24 10:41:00,-2.0,-9.7,30.65,South,172,0.0,1.0,69,0.00,,CLR,0.00,VWS V12.07,2013-01-24 16:41:00,
2013-01-24 10:45:00,-1.4,-9.1,30.65,South,172,1.0,1.0,69,0.00,,CLR,0.00,VWS V12.07,2013-01-24 16:45:00,
2013-01-24 10:46:00,-1.2,-8.9,30.65,South,172,0.0,1.0,69,0.00,,CLR,0.00,VWS V12.07,2013-01-24 16:46:00,
2013-01-24 10:50:00,-0.4,-8.1,30.65,SSE,153,0.0,2.0,69,0.00,,CLR,0.00,VWS V12.07,2013-01-24 16:50:00,
2013-01-24 10:51:00,-0.2,-7.7,30.65,SSE,153,0.0,2.0,69,0.00,,CLR,0.00,VWS V12.07,2013-01-24 16:51:00,
2013-01-24 10:55:00,0.1,-7.9,30.65,SSE,153,0.0,2.0,68,0.00,,CLR,0.00,VWS V12.07,2013-01-24 16:55:00,
2013-01-24 10:56:00,0.3,-7.8,30.65,SSE,155,1.0,2.0,68,0.00,,CLR,0.00,VWS V12.07,2013-01-24 16:56:00,
2013-01-24 10:57:00,0.3,-7.8,30.65,SSE,155,0.0,2.0,68,0.00,,CLR,0.00,VWS V12.07,2013-01-24 16:57:00,
2013-01-24 11:00:00,0.9,-7.2,30.65,SSE,155,0.0,1.0,68,0.00,,CLR,0.00,VWS V12.07,2013-01-24 17:00:00,
2013-01-24 11:01:00,1.1,-7.0,30.65,SSE,155,0.0,1.0,68,0.00,,CLR,0.00,VWS V12.07,2013-01-24 17:01:00,
2013-01-24 11:03:00,1.3,-7.1,30.65,SSE,155,1.0,1.0,67,0.00,,CLR,0.00,VWS V12.07,2013-01-24 17:03:00,
2013-01-24 11:05:00,1.5,-7.5,30.65,SSE,155,1.0,2.0,65,0.00,,CLR,0.00,VWS V12.07,2013-01-24 17:05:00,
2013-01-24 11:06:00,1.3,-7.7,30.65,SSE,154,2.0,3.0,65,0.00,,CLR,0.00,VWS V12.07,2013-01-24 17:06:00,
2013-01-24 11:07:00,1.3,-8.0,30.65,SSE,154,1.0,3.0,64,0.00,,CLR,0.00,VWS V12.07,2013-01-24 17:07:00,
2013-01-24 11:08:00,1.3,-7.7,30.65,SSE,154,0.0,3.0,65,0.00,,CLR,0.00,VWS V12.07,2013-01-24 17:08:00,
2013-01-24 11:11:00,1.3,-7.7,30.65,SSE,161,1.0,3.0,65,0.00,,CLR,0.00,VWS V12.07,2013-01-24 17:11:00,
2013-01-24 11:12:00,1.1,-7.9,30.65,SSE,165,1.0,3.0,65,0.00,,CLR,0.00,VWS V12.07,2013-01-24 17:12:00,
2013-01-24 11:14:00,1.1,-7.9,30.65,South,174,1.0,3.0,65,0.00,,CLR,0.00,VWS V12.07,2013-01-24 17:14:00,
2013-01-24 11:16:00,0.9,-8.1,30.64,South,174,1.0,3.0,65,0.00,,CLR,0.00,VWS V12.07,2013-01-24 17:16:00,
2013-01-24 11:17:00,0.9,-8.1,30.64,South,174,0.0,3.0,65,0.00,,CLR,0.00,VWS V12.07,2013-01-24 17:17:00,
2013-01-24 11:19:00,1.1,-7.6,30.64,South,174,1.0,1.0,66,0.00,,CLR,0.00,VWS V12.07,2013-01-24 17:19:00,
2013-01-24 11:21:00,1.1,-7.9,30.64,South,174,0.0,1.0,65,0.00,,CLR,0.00,VWS V12.07,2013-01-24 17:21:00,
2013-01-24 11:22:00,1.1,-7.9,30.64,South,174,1.0,1.0,65,0.00,,CLR,0.00,VWS V12.07,2013-01-24 17:22:00,
2013-01-24 11:24:00,0.9,-8.1,30.64,South,174,0.0,2.0,65,0.00,,CLR,0.00,VWS V12.07,2013-01-24 17:24:00,
2013-01-24 11:26:00,0.9,-8.1,30.64,South,174,0.0,2.0,65,0.00,,CLR,0.00,VWS V12.07,2013-01-24 17:26:00,
2013-01-24 11:27:00,0.9,-8.1,30.64,South,174,1.0,2.0,65,0.00,,CLR,0.00,VWS V12.07,2013-01-24 17:27:00,
2013-01-24 11:28:00,0.9,-8.1,30.64,South,191,0.0,2.0,65,0.00,,CLR,0.00,VWS V12.07,2013-01-24 17:28:00,
2013-01-24 11:30:00,0.9,-8.1,30.64,South,191,1.0,2.0,65,0.00,,CLR,0.00,VWS V12.07,2013-01-24 17:30:00,
2013-01-24 11:32:00,1.1,-7.9,30.63,South,191,0.0,2.0,65,0.00,,CLR,0.00,VWS V12.07,2013-01-24 17:32:00,
2013-01-24 11:33:00,1.1,-7.6,30.63,SSW,196,2.0,2.0,66,0.00,,CLR,0.00,VWS V12.07,2013-01-24 17:33:00,
2013-01-24 11:35:00,0.9,-8.1,30.63,SSW,212,1.0,2.0,65,0.00,,CLR,0.00,VWS V12.07,2013-01-24 17:35:00,
2013-01-24 11:37:00,0.9,-8.1,30.63,SSW,212,1.0,2.0,65,0.00,,CLR,0.00,VWS V12.07,2013-01-24 17:37:00,
2013-01-24 11:38:00,0.9,-8.1,30.63,SSW,211,2.0,3.0,65,0.00,,CLR,0.00,VWS V12.07,2013-01-24 17:38:00,
2013-01-24 11:40:00,0.9,-7.8,30.63,SSW,206,3.0,3.0,66,0.00,,CLR,0.00,VWS V12.07,2013-01-24 17:40:00,
2013-01-24 11:42:00,0.9,-7.8,30.63,SSW,205,1.0,3.0,66,0.00,,CLR,0.00,VWS V12.07,2013-01-24 17:42:00,
2013-01-24 11:43:00,1.1,-7.6,30.63,SSW,199,1.0,3.0,66,0.00,,CLR,0.00,VWS V12.07,2013-01-24 17:43:00,
2013-01-24 11:46:00,1.1,-7.6,30.62,South,172,0.0,3.0,66,0.00,,CLR,0.00,VWS V12.07,2013-01-24 17:46:00,
2013-01-24 11:47:00,1.3,-7.4,30.62,South,172,0.0,3.0,66,0.00,,CLR,0.00,VWS V12.07,2013-01-24 17:47:00,
2013-01-24 11:48:00,1.3,-7.4,30.62,South,172,0.0,1.0,66,0.00,,CLR,0.00,VWS V12.07,2013-01-24 17:48:00,
2013-01-24 11:51:00,1.5,-7.2,30.62,South,172,1.0,1.0,66,0.00,,CLR,0.00,VWS V12.07,2013-01-24 17:51:00,
2013-01-24 11:53:00,1.8,-6.9,30.62,South,172,1.0,2.0,66,0.00,,CLR,0.00,VWS V12.07,2013-01-24 17:53:00,
2013-01-24 11:54:00,1.8,-6.9,30.62,SSW,200,2.0,2.0,66,0.00,,CLR,0.00,VWS V12.07,2013-01-24 17:54:00,
2013-01-24 11:57:00,1.7,-7.3,30.62,SSW,201,1.0,2.0,65,0.00,,CLR,0.00,VWS V12.07,2013-01-24 17:57:00,
2013-01-24 11:58:00,1.7,-7.3,30.62,SSW,201,0.0,2.0,65,0.00,,CLR,0.00,VWS V12.07,2013-01-24 17:58:00,
2013-01-24 11:59:00,1.7,-7.3,30.62,SSW,201,0.0,2.0,65,0.00,,CLR,0.00,VWS V12.07,2013-01-24 17:59:00,
2013-01-24 12:00:00,1.7,-7.0,30.62,SSW,201,0.0,2.0,66,0.00,,CLR,0.00,VWS V12.07,2013-01-24 18:00:00,
2013-01-24 12:02:00,1.8,-6.9,30.62,SSW,201,0.0,2.0,66,0.00,,CLR,0.00,VWS V12.07,2013-01-24 18:02:00,
2013-01-24 12:03:00,2.0,-6.7,30.62,SSW,201,0.0,2.0,66,0.00,,CLR,0.00,VWS V12.07,2013-01-24 18:03:00,
2013-01-24 12:04:00,2.0,-6.7,30.62,SSW,201,0.0,2.0,66,0.00,,CLR,0.00,VWS V12.07,2013-01-24 18:04:00,
2013-01-24 12:05:00,2.2,-6.5,30.62,SSW,201,0.0,2.0,66,0.00,,CLR,0.00,VWS V12.07,2013-01-24 18:05:00,
2013-01-24 12:07:00,2.4,-6.7,30.62,SSW,201,1.0,2.0,65,0.00,,CLR,0.00,VWS V12.07,2013-01-24 18:07:00,
2013-01-24 12:08:00,2.4,-7.0,30.62,SSW,201,1.0,1.0,64,0.00,,CLR,0.00,VWS V12.07,2013-01-24 18:08:00,
2013-01-24 12:09:00,2.6,-7.1,30.62,SSW,201,0.0,1.0,63,0.00,,CLR,0.00,VWS V12.07,2013-01-24 18:09:00,
2013-01-24 12:10:00,2.6,-7.1,30.62,SSW,201,0.0,1.0,63,0.00,,CLR,0.00,VWS V12.07,2013-01-24 18:10:00,
2013-01-24 12:13:00,2.6,-7.8,30.62,SSW,201,0.0,2.0,61,0.00,,CLR,0.00,VWS V12.07,2013-01-24 18:13:00,
2013-01-24 12:15:00,2.8,-7.6,30.62,SSW,201,0.0,2.0,61,0.00,,CLR,0.00,VWS V12.07,2013-01-24 18:15:00,
2013-01-24 12:18:00,2.6,-8.1,30.62,SSW,201,0.0,2.0,60,0.00,,CLR,0.00,VWS V12.07,2013-01-24 18:18:00,
2013-01-24 12:19:00,2.6,-8.1,30.62,SSW,201,0.0,2.0,60,0.00,,CLR,0.00,VWS V12.07,2013-01-24 18:19:00,
2013-01-24 12:20:00,2.8,-7.9,30.62,SSW,201,0.0,2.0,60,0.00,,CLR,0.00,VWS V12.07,2013-01-24 18:20:00,
2013-01-24 12:21:00,2.8,-7.6,30.62,SSW,201,1.0,2.0,61,0.00,,CLR,0.00,VWS V12.07,2013-01-24 18:21:00,
2013-01-24 12:24:00,3.0,-7.7,30.62,SSW,201,0.0,2.0,60,0.00,,CLR,0.00,VWS V12.07,2013-01-24 18:24:00,
2013-01-24 12:25:00,3.0,-7.7,30.62,SSW,201,0.0,2.0,60,0.00,,CLR,0.00,VWS V12.07,2013-01-24 18:25:00,
2013-01-24 12:27:00,3.0,-7.7,30.62,SSW,210,0.0,2.0,60,0.00,,CLR,0.00,VWS V12.07,2013-01-24 18:27:00,
2013-01-24 12:29:00,3.2,-7.2,30.62,SSW,210,1.0,2.0,61,0.00,,CLR,0.00,VWS V12.07,2013-01-24 18:29:00,
2013-01-24 12:30:00,3.2,-7.2,30.62,SSE,167,2.0,2.0,61,0.00,,CLR,0.00,VWS V12.07,2013-01-24 18:30:00,
2013-01-24 12:32:00,3.5,-6.9,30.61,South,169,0.0,2.0,61,0.00,,CLR,0.00,VWS V12.07,2013-01-24 18:32:00,
2013-01-24 12:34:00,3.5,-7.3,30.61,SSW,198,1.0,3.0,60,0.00,,CLR,0.00,VWS V12.07,2013-01-24 18:34:00,
2013-01-24 12:35:00,3.5,-7.3,30.61,SW,215,2.0,3.0,60,0.00,,CLR,0.00,VWS V12.07,2013-01-24 18:35:00,
2013-01-24 12:36:00,3.5,-7.6,30.61,SW,215,0.0,3.0,59,0.00,,CLR,0.00,VWS V12.07,2013-01-24 18:36:00,
2013-01-24 12:37:00,3.5,-7.6,30.61,South,188,0.0,3.0,59,0.00,,CLR,0.00,VWS V12.07,2013-01-24 18:37:00,
2013-01-24 12:40:00,3.4,-7.7,30.61,South,188,0.0,2.0,59,0.00,,CLR,0.00,VWS V12.07,2013-01-24 18:40:00,
2013-01-24 12:41:00,3.4,-7.7,30.61,South,188,0.0,2.0,59,0.00,,CLR,0.00,VWS V12.07,2013-01-24 18:41:00,
2013-01-24 12:43:00,3.4,-7.7,30.61,South,188,1.0,2.0,59,0.00,,CLR,0.00,VWS V12.07,2013-01-24 18:43:00,
2013-01-24 12:45:00,3.4,-8.1,30.61,South,188,0.0,2.0,58,0.00,,CLR,0.00,VWS V12.07,2013-01-24 18:45:00,
2013-01-24 12:46:00,3.2,-8.6,30.61,South,188,0.0,2.0,57,0.00,,CLR,0.00,VWS V12.07,2013-01-24 18:46:00,
2013-01-24 12:48:00,3.2,-8.6,30.61,South,187,1.0,0.0,57,0.00,,CLR,0.00,VWS V12.07,2013-01-24 18:48:00,
2013-01-24 12:50:00,3.2,-8.9,30.61,South,187,0.0,2.0,56,0.00,,CLR,0.00,VWS V12.07,2013-01-24 18:50:00,
2013-01-24 12:51:00,3.2,-8.6,30.61,South,187,0.0,2.0,57,0.00,,CLR,0.00,VWS V12.07,2013-01-24 18:51:00,
2013-01-24 12:52:00,3.2,-8.6,30.61,South,187,0.0,2.0,57,0.00,,CLR,0.00,VWS V12.07,2013-01-24 18:52:00,
2013-01-24 12:53:00,3.2,-8.6,30.61,South,187,0.0,2.0,57,0.00,,CLR,0.00,VWS V12.07,2013-01-24 18:53:00,
2013-01-24 12:55:00,3.2,-8.6,30.61,South,187,1.0,2.0,57,0.00,,CLR,0.00,VWS V12.07,2013-01-24 18:55:00,
2013-01-24 12:57:00,3.4,-8.4,30.61,South,187,1.0,2.0,57,0.00,,CLR,0.00,VWS V12.07,2013-01-24 18:57:00,
2013-01-24 12:59:00,3.4,-8.4,30.61,South,187,0.0,2.0,57,0.00,,CLR,0.00,VWS V12.07,2013-01-24 18:59:00,
2013-01-24 13:00:00,3.5,-8.3,30.59,South,187,0.0,2.0,57,0.00,,CLR,0.00,VWS V12.07,2013-01-24 19:00:00,
2013-01-24 13:02:00,3.5,-8.3,30.59,South,187,1.0,2.0,57,0.00,,CLR,0.00,VWS V12.07,2013-01-24 19:02:00,
2013-01-24 13:04:00,3.7,-8.1,30.59,South,187,1.0,2.0,57,0.00,,CLR,0.00,VWS V12.07,2013-01-24 19:04:00,
2013-01-24 13:05:00,3.7,-8.1,30.59,South,187,0.0,2.0,57,0.00,,CLR,0.00,VWS V12.07,2013-01-24 19:05:00,
2013-01-24 13:07:00,3.7,-8.5,30.59,South,188,1.0,2.0,56,0.00,,CLR,0.00,VWS V12.07,2013-01-24 19:07:00,
2013-01-24 13:10:00,3.5,-9.0,30.59,SSW,195,0.0,2.0,55,0.00,,CLR,0.00,VWS V12.07,2013-01-24 19:10:00,
2013-01-24 13:12:00,3.5,-8.7,30.59,SSW,195,0.0,2.0,56,0.00,,CLR,0.00,VWS V12.07,2013-01-24 19:12:00,
2013-01-24 13:15:00,3.7,-8.1,30.59,SSW,195,0.0,2.0,57,0.00,,CLR,0.00,VWS V12.07,2013-01-24 19:15:00,
2013-01-24 13:16:00,3.7,-8.1,30.59,SSW,195,0.0,2.0,57,0.00,,CLR,0.00,VWS V12.07,2013-01-24 19:16:00,
2013-01-24 13:18:00,3.7,-8.1,30.59,SSW,195,0.0,2.0,57,0.00,,CLR,0.00,VWS V12.07,2013-01-24 19:18:00,
2013-01-24 13:21:00,3.9,-8.3,30.59,SSW,195,1.0,2.0,56,0.00,,CLR,0.00,VWS V12.07,2013-01-24 19:21:00,
2013-01-24 13:23:00,3.9,-8.3,30.59,SSW,195,0.0,2.0,56,0.00,,CLR,0.00,VWS V12.07,2013-01-24 19:23:00,
2013-01-24 13:26:00,3.9,-7.9,30.59,SSW,195,0.0,2.0,57,0.00,,CLR,0.00,VWS V12.07,2013-01-24 19:26:00,
2013-01-24 13:27:00,3.9,-7.9,30.59,SSW,195,1.0,2.0,57,0.00,,CLR,0.00,VWS V12.07,2013-01-24 19:27:00,
2013-01-24 13:28:00,3.9,-7.9,30.59,SSW,195,0.0,2.0,57,0.00,,CLR,0.00,VWS V12.07,2013-01-24 19:28:00,
2013-01-24 13:31:00,4.1,-7.7,30.58,SSW,195,1.0,2.0,57,0.00,,CLR,0.00,VWS V12.07,2013-01-24 19:31:00,
2013-01-24 13:32:00,4.1,-7.7,30.58,SSW,195,1.0,2.0,57,0.00,,CLR,0.00,VWS V12.07,2013-01-24 19:32:00,
2013-01-24 13:33:00,4.1,-8.1,30.58,SSW,195,0.0,2.0,56,0.00,,CLR,0.00,VWS V12.07,2013-01-24 19:33:00,
2013-01-24 13:34:00,4.1,-8.1,30.58,SSW,195,0.0,2.0,56,0.00,,CLR,0.00,VWS V12.07,2013-01-24 19:34:00,
2013-01-24 13:36:00,4.1,-8.1,30.58,SSW,195,1.0,2.0,56,0.00,,CLR,0.00,VWS V12.07,2013-01-24 19:36:00,
2013-01-24 13:37:00,4.1,-8.1,30.58,SSW,195,0.0,2.0,56,0.00,,CLR,0.00,VWS V12.07,2013-01-24 19:37:00,
2013-01-24 13:38:00,4.1,-8.1,30.58,SSW,195,0.0,2.0,56,0.00,,CLR,0.00,VWS V12.07,2013-01-24 19:38:00,
2013-01-24 13:39:00,4.1,-8.1,30.58,SSW,195,0.0,2.0,56,0.00,,CLR,0.00,VWS V12.07,2013-01-24 19:39:00,
2013-01-24 13:42:00,4.1,-8.1,30.58,SSW,195,0.0,2.0,56,0.00,,CLR,0.00,VWS V12.07,2013-01-24 19:42:00,
2013-01-24 13:43:00,4.1,-7.7,30.58,SSW,195,0.0,2.0,57,0.00,,CLR,0.00,VWS V12.07,2013-01-24 19:43:00,
2013-01-24 13:45:00,4.1,-7.7,30.58,SSW,195,1.0,2.0,57,0.00,,CLR,0.00,VWS V12.07,2013-01-24 19:45:00,
2013-01-24 13:47:00,4.3,-7.6,30.58,SSW,195,1.0,2.0,57,0.00,,CLR,0.00,VWS V12.07,2013-01-24 19:47:00,
2013-01-24 13:48:00,4.3,-7.6,30.58,SSW,195,0.0,1.0,57,0.00,,CLR,0.00,VWS V12.07,2013-01-24 19:48:00,
2013-01-24 13:50:00,4.3,-7.6,30.58,SSW,195,0.0,1.0,57,0.00,,CLR,0.00,VWS V12.07,2013-01-24 19:50:00,
2013-01-24 13:52:00,4.5,-7.0,30.58,SSW,195,0.0,1.0,58,0.00,,CLR,0.00,VWS V12.07,2013-01-24 19:52:00,
2013-01-24 13:53:00,4.5,-7.0,30.58,SSW,195,1.0,2.0,58,0.00,,CLR,0.00,VWS V12.07,2013-01-24 19:53:00,
2013-01-24 13:55:00,4.5,-7.4,30.58,SSW,198,2.0,2.0,57,0.00,,CLR,0.00,VWS V12.07,2013-01-24 19:55:00,
2013-01-24 13:57:00,4.5,-7.4,30.58,SSW,198,0.0,2.0,57,0.00,,CLR,0.00,VWS V12.07,2013-01-24 19:57:00,
2013-01-24 13:59:00,4.5,-7.4,30.58,SSW,199,1.0,2.0,57,0.00,,CLR,0.00,VWS V12.07,2013-01-24 19:59:00,
2013-01-24 14:00:00,4.5,-7.4,30.58,SSW,199,1.0,2.0,57,0.00,,CLR,0.00,VWS V12.07,2013-01-24 20:00:00,
2013-01-24 14:02:00,4.5,-7.4,30.57,SSW,200,1.0,2.0,57,0.00,,CLR,0.00,VWS V12.07,2013-01-24 20:02:00,
2013-01-24 14:03:00,4.5,-7.4,30.57,SSW,200,1.0,2.0,57,0.00,,CLR,0.00,VWS V12.07,2013-01-24 20:03:00,
2013-01-24 14:04:00,4.5,-7.0,30.57,SSW,200,1.0,2.0,58,0.00,,CLR,0.00,VWS V12.07,2013-01-24 20:04:00,
2013-01-24 14:05:00,4.5,-7.0,30.57,SSW,200,0.0,2.0,58,0.00,,CLR,0.00,VWS V12.07,2013-01-24 20:05:00,
2013-01-24 14:07:00,4.5,-7.0,30.57,SSW,200,0.0,2.0,58,0.00,,CLR,0.00,VWS V12.07,2013-01-24 20:07:00,
2013-01-24 14:08:00,4.7,-6.5,30.57,SSW,200,0.0,1.0,59,0.00,,CLR,0.00,VWS V12.07,2013-01-24 20:08:00,
2013-01-24 14:09:00,4.7,-6.8,30.57,SSW,200,0.0,1.0,58,0.00,,CLR,0.00,VWS V12.07,2013-01-24 20:09:00,
2013-01-24 14:11:00,4.7,-6.8,30.57,SSW,200,0.0,1.0,58,0.00,,CLR,0.00,VWS V12.07,2013-01-24 20:11:00,
2013-01-24 14:13:00,4.7,-6.8,30.57,SSW,210,2.0,2.0,58,0.00,,CLR,0.00,VWS V12.07,2013-01-24 20:13:00,
2013-01-24 14:14:00,4.7,-6.8,30.57,SSW,210,0.0,2.0,58,0.00,,CLR,0.00,VWS V12.07,2013-01-24 20:14:00,
2013-01-24 14:16:00,4.7,-6.8,30.57,SSW,210,1.0,2.0,58,0.00,,CLR,0.00,VWS V12.07,2013-01-24 20:16:00,
2013-01-24 14:19:00,4.7,-6.8,30.57,SSW,210,0.0,2.0,58,0.00,,CLR,0.00,VWS V12.07,2013-01-24 20:19:00,
2013-01-24 14:20:00,4.7,-6.8,30.57,SSW,210,1.0,2.0,58,0.00,,CLR,0.00,VWS V12.07,2013-01-24 20:20:00,
2013-01-24 14:21:00,4.7,-6.8,30.57,SSW,210,0.0,2.0,58,0.00,,CLR,0.00,VWS V12.07,2013-01-24 20:21:00,
2013-01-24 14:24:00,4.7,-6.8,30.57,SSW,210,1.0,2.0,58,0.00,,CLR,0.00,VWS V12.07,2013-01-24 20:24:00,
2013-01-24 14:25:00,4.7,-6.8,30.57,SSW,210,0.0,2.0,58,0.00,,CLR,0.00,VWS V12.07,2013-01-24 20:25:00,
2013-01-24 14:27:00,4.7,-6.5,30.57,SSW,210,0.0,2.0,59,0.00,,CLR,0.00,VWS V12.07,2013-01-24 20:27:00,
2013-01-24 14:29:00,4.7,-6.5,30.57,SSW,210,0.0,1.0,59,0.00,,CLR,0.00,VWS V12.07,2013-01-24 20:29:00,
2013-01-24 14:30:00,4.8,-6.0,30.57,SSW,210,1.0,1.0,60,0.00,,CLR,0.00,VWS V12.07,2013-01-24 20:30:00,
2013-01-24 14:32:00,4.8,-6.0,30.57,SSW,210,0.0,1.0,60,0.00,,CLR,0.00,VWS V12.07,2013-01-24 20:32:00,
2013-01-24 14:35:00,4.8,-6.0,30.57,SSW,210,1.0,2.0,60,0.00,,CLR,0.00,VWS V12.07,2013-01-24 20:35:00,
2013-01-24 14:36:00,4.8,-6.4,30.57,SSW,210,0.0,2.0,59,0.00,,CLR,0.00,VWS V12.07,2013-01-24 20:36:00,
2013-01-24 14:37:00,4.8,-6.4,30.57,SSW,210,0.0,2.0,59,0.00,,CLR,0.00,VWS V12.07,2013-01-24 20:37:00,
2013-01-24 14:40:00,4.8,-6.7,30.57,SSW,210,0.0,2.0,58,0.00,,CLR,0.00,VWS V12.07,2013-01-24 20:40:00,
2013-01-24 14:41:00,5.0,-6.5,30.57,SSW,210,0.0,2.0,58,0.00,,CLR,0.00,VWS V12.07,2013-01-24 20:41:00,
2013-01-24 14:42:00,5.0,-6.2,30.57,SSW,210,2.0,2.0,59,0.00,,CLR,0.00,VWS V12.07,2013-01-24 20:42:00,
2013-01-24 14:45:00,5.0,-5.8,30.57,SSW,210,0.0,2.0,60,0.00,,CLR,0.00,VWS V12.07,2013-01-24 20:45:00,
2013-01-24 14:46:00,5.0,-5.8,30.57,SSW,210,0.0,2.0,60,0.00,,CLR,0.00,VWS V12.07,2013-01-24 20:46:00,
2013-01-24 14:47:00,5.0,-5.8,30.57,SSW,210,0.0,2.0,60,0.00,,CLR,0.00,VWS V12.07,2013-01-24 20:47:00,
2013-01-24 14:50:00,5.2,-5.7,30.57,SSW,210,0.0,1.0,60,0.00,,CLR,0.00,VWS V12.07,2013-01-24 20:50:00,
2013-01-24 14:51:00,5.2,-5.7,30.57,SSW,210,0.0,1.0,60,0.00,,CLR,0.00,VWS V12.07,2013-01-24 20:51:00,
2013-01-24 14:53:00,5.2,-6.0,30.57,SSW,210,0.0,1.0,59,0.00,,CLR,0.00,VWS V12.07,2013-01-24 20:53:00,
2013-01-24 14:55:00,5.0,-6.5,30.57,SSW,210,0.0,1.0,58,0.00,,CLR,0.00,VWS V12.07,2013-01-24 20:55:00,
2013-01-24 14:56:00,5.0,-6.5,30.57,SSW,210,0.0,1.0,58,0.00,,CLR,0.00,VWS V12.07,2013-01-24 20:56:00,
2013-01-24 14:58:00,5.0,-6.5,30.57,SSW,210,0.0,1.0,58,0.00,,CLR,0.00,VWS V12.07,2013-01-24 20:58:00,
2013-01-24 15:01:00,5.0,-6.5,30.56,SSW,210,0.0,1.0,58,0.00,,CLR,0.00,VWS V12.07,2013-01-24 21:01:00,
2013-01-24 15:02:00,5.0,-6.5,30.56,SSW,210,1.0,2.0,58,0.00,,CLR,0.00,VWS V12.07,2013-01-24 21:02:00,
2013-01-24 15:03:00,5.0,-6.5,30.56,SSW,210,0.0,2.0,58,0.00,,CLR,0.00,VWS V12.07,2013-01-24 21:03:00,
2013-01-24 15:06:00,5.0,-6.5,30.56,SSW,210,1.0,2.0,58,0.00,,CLR,0.00,VWS V12.07,2013-01-24 21:06:00,
2013-01-24 15:07:00,5.0,-6.9,30.56,SSW,210,0.0,2.0,57,0.00,,CLR,0.00,VWS V12.07,2013-01-24 21:07:00,
2013-01-24 15:08:00,5.0,-6.9,30.56,SSW,210,0.0,2.0,57,0.00,,CLR,0.00,VWS V12.07,2013-01-24 21:08:00,
2013-01-24 15:11:00,5.0,-6.9,30.56,SSW,210,0.0,2.0,57,0.00,,CLR,0.00,VWS V12.07,2013-01-24 21:11:00,
2013-01-24 15:12:00,5.0,-6.9,30.56,SSW,210,0.0,2.0,57,0.00,,CLR,0.00,VWS V12.07,2013-01-24 21:12:00,
2013-01-24 15:13:00,5.0,-6.5,30.56,SSW,210,0.0,2.0,58,0.00,,CLR,0.00,VWS V12.07,2013-01-24 21:13:00,
2013-01-24 15:16:00,5.0,-7.3,30.56,SSW,210,0.0,2.0,56,0.00,,CLR,0.00,VWS V12.07,2013-01-24 21:16:00,
2013-01-24 15:17:00,5.0,-7.3,30.56,SSW,210,1.0,2.0,56,0.00,,CLR,0.00,VWS V12.07,2013-01-24 21:17:00,
2013-01-24 15:18:00,5.0,-7.3,30.56,SSW,210,1.0,1.0,56,0.00,,CLR,0.00,VWS V12.07,2013-01-24 21:18:00,
2013-01-24 15:19:00,5.0,-7.3,30.56,SSW,210,0.0,1.0,56,0.00,,CLR,0.00,VWS V12.07,2013-01-24 21:19:00,
2013-01-24 15:21:00,5.0,-7.3,30.56,SSW,210,0.0,1.0,56,0.00,,CLR,0.00,VWS V12.07,2013-01-24 21:21:00,
2013-01-24 15:22:00,5.2,-7.1,30.56,SSW,210,0.0,1.0,56,0.00,,CLR,0.00,VWS V12.07,2013-01-24 21:22:00,
2013-01-24 15:23:00,5.2,-6.7,30.56,SSW,210,0.0,1.0,57,0.00,,CLR,0.00,VWS V12.07,2013-01-24 21:23:00,
2013-01-24 15:24:00,5.2,-6.7,30.56,SSW,210,0.0,1.0,57,0.00,,CLR,0.00,VWS V12.07,2013-01-24 21:24:00,
2013-01-24 15:26:00,5.2,-6.7,30.56,SSW,210,0.0,1.0,57,0.00,,CLR,0.00,VWS V12.07,2013-01-24 21:26:00,
2013-01-24 15:27:00,5.2,-6.7,30.56,SSW,210,0.0,1.0,57,0.00,,CLR,0.00,VWS V12.07,2013-01-24 21:27:00,
2013-01-24 15:28:00,5.2,-7.1,30.56,SSW,210,0.0,0.0,56,0.00,,CLR,0.00,VWS V12.07,2013-01-24 21:28:00,
2013-01-24 15:30:00,5.2,-7.1,30.56,SSW,210,0.0,0.0,56,0.00,,CLR,0.00,VWS V12.07,2013-01-24 21:30:00,
2013-01-24 15:32:00,5.4,-6.5,30.56,SSW,210,0.0,0.0,57,0.00,,CLR,0.00,VWS V12.07,2013-01-24 21:32:00,
2013-01-24 15:33:00,5.4,-6.5,30.56,SSW,210,0.0,0.0,57,0.00,,CLR,0.00,VWS V12.07,2013-01-24 21:33:00,
2013-01-24 15:34:00,5.4,-6.5,30.56,SSW,210,1.0,1.0,57,0.00,,CLR,0.00,VWS V12.07,2013-01-24 21:34:00,
2013-01-24 15:35:00,5.4,-6.5,30.56,SSW,210,1.0,1.0,57,0.00,,CLR,0.00,VWS V12.07,2013-01-24 21:35:00,
2013-01-24 15:37:00,5.4,-6.2,30.56,SSW,210,0.0,1.0,58,0.00,,CLR,0.00,VWS V12.07,2013-01-24 21:37:00,
2013-01-24 15:38:00,5.4,-6.2,30.56,SSW,210,1.0,0.0,58,0.00,,CLR,0.00,VWS V12.07,2013-01-24 21:38:00,
2013-01-24 15:39:00,5.4,-6.5,30.56,SSW,210,0.0,1.0,57,0.00,,CLR,0.00,VWS V12.07,2013-01-24 21:39:00,
2013-01-24 15:40:00,5.4,-6.5,30.56,SSW,210,0.0,1.0,57,0.00,,CLR,0.00,VWS V12.07,2013-01-24 21:40:00,
2013-01-24 15:42:00,5.4,-6.5,30.56,SSW,210,1.0,1.0,57,0.00,,CLR,0.00,VWS V12.07,2013-01-24 21:42:00,
2013-01-24 15:43:00,5.4,-6.5,30.56,SSW,210,0.0,1.0,57,0.00,,CLR,0.00,VWS V12.07,2013-01-24 21:43:00,
2013-01-24 15:44:00,5.4,-6.5,30.56,SSW,210,0.0,1.0,57,0.00,,CLR,0.00,VWS V12.07,2013-01-24 21:44:00,
2013-01-24 15:46:00,5.4,-6.5,30.55,SSW,210,0.0,1.0,57,0.00,,CLR,0.00,VWS V12.07,2013-01-24 21:46:00,
2013-01-24 15:48:00,5.4,-6.5,30.55,SSW,210,0.0,1.0,57,0.00,,CLR,0.00,VWS V12.07,2013-01-24 21:48:00,
2013-01-24 15:50:00,5.4,-6.5,30.55,SSW,210,0.0,0.0,57,0.00,,CLR,0.00,VWS V12.07,2013-01-24 21:50:00,
2013-01-24 15:51:00,5.4,-6.2,30.55,SSW,210,0.0,0.0,58,0.00,,CLR,0.00,VWS V12.07,2013-01-24 21:51:00,
2013-01-24 15:53:00,5.4,-6.2,30.55,SSW,210,0.0,0.0,58,0.00,,CLR,0.00,VWS V12.07,2013-01-24 21:53:00,
2013-01-24 15:55:00,5.4,-6.2,30.55,SSW,210,1.0,1.0,58,0.00,,CLR,0.00,VWS V12.07,2013-01-24 21:55:00,
2013-01-24 15:56:00,5.4,-6.5,30.55,SSW,210,0.0,1.0,57,0.00,,CLR,0.00,VWS V12.07,2013-01-24 21:56:00,
2013-01-24 15:58:00,5.4,-6.2,30.55,SSW,210,0.0,1.0,58,0.00,,CLR,0.00,VWS V12.07,2013-01-24 21:58:00,
2013-01-24 15:59:00,5.4,-6.2,30.55,SSW,210,0.0,1.0,58,0.00,,CLR,0.00,VWS V12.07,2013-01-24 21:59:00,
2013-01-24 16:00:00,5.4,-5.8,30.55,SSW,210,1.0,1.0,59,0.00,,CLR,0.00,VWS V12.07,2013-01-24 22:00:00,
2013-01-24 16:01:00,5.4,-5.8,30.55,SSW,210,1.0,1.0,59,0.00,,CLR,0.00,VWS V12.07,2013-01-24 22:01:00,
2013-01-24 16:03:00,5.4,-5.5,30.55,SSW,210,0.0,1.0,60,0.00,,CLR,0.00,VWS V12.07,2013-01-24 22:03:00,
2013-01-24 16:04:00,5.4,-5.8,30.55,SSW,210,0.0,1.0,59,0.00,,CLR,0.00,VWS V12.07,2013-01-24 22:04:00,
2013-01-24 16:06:00,5.4,-6.5,30.55,SSW,210,0.0,1.0,57,0.00,,CLR,0.00,VWS V12.07,2013-01-24 22:06:00,
2013-01-24 16:09:00,5.4,-6.2,30.55,SSW,210,0.0,1.0,58,0.00,,CLR,0.00,VWS V12.07,2013-01-24 22:09:00,
2013-01-24 16:11:00,5.4,-5.8,30.55,SSW,210,0.0,1.0,59,0.00,,CLR,0.00,VWS V12.07,2013-01-24 22:11:00,
2013-01-24 16:12:00,5.4,-6.2,30.55,SSW,210,1.0,2.0,58,0.00,,CLR,0.00,VWS V12.07,2013-01-24 22:12:00,
2013-01-24 16:14:00,5.2,-6.7,30.55,SSW,210,0.0,2.0,57,0.00,,CLR,0.00,VWS V12.07,2013-01-24 22:14:00,
2013-01-24 16:16:00,5.2,-6.7,30.54,SSW,210,0.0,2.0,57,0.00,,CLR,0.00,VWS V12.07,2013-01-24 22:16:00,
2013-01-24 16:18:00,5.2,-6.7,30.54,SSW,210,1.0,2.0,57,0.00,,CLR,0.00,VWS V12.07,2013-01-24 22:18:00,
2013-01-24 16:19:00,5.2,-7.1,30.54,SSW,210,1.0,2.0,56,0.00,,CLR,0.00,VWS V12.07,2013-01-24 22:19:00,
2013-01-24 16:21:00,5.2,-7.1,30.54,SSW,210,1.0,2.0,56,0.00,,CLR,0.00,VWS V12.07,2013-01-24 22:21:00,
2013-01-24 16:23:00,5.0,-6.9,30.54,SSW,210,1.0,2.0,57,0.00,,CLR,0.00,VWS V12.07,2013-01-24 22:23:00,
2013-01-24 16:24:00,5.0,-6.5,30.54,SSW,210,0.0,2.0,58,0.00,,CLR,0.00,VWS V12.07,2013-01-24 22:24:00,
2013-01-24 16:25:00,5.0,-6.5,30.54,SSW,210,0.0,2.0,58,0.00,,CLR,0.00,VWS V12.07,2013-01-24 22:25:00,
2013-01-24 16:26:00,5.0,-6.9,30.54,SSW,210,0.0,2.0,57,0.00,,CLR,0.00,VWS V12.07,2013-01-24 22:26:00,
2013-01-24 16:28:00,5.0,-6.9,30.54,SSW,210,0.0,1.0,57,0.00,,CLR,0.00,VWS V12.07,2013-01-24 22:28:00,
2013-01-24 16:29:00,5.0,-6.9,30.54,SSW,210,0.0,1.0,57,0.00,,CLR,0.00,VWS V12.07,2013-01-24 22:29:00,
2013-01-24 16:30:00,5.0,-6.9,30.53,SSW,210,0.0,1.0,57,0.00,,CLR,0.00,VWS V12.07,2013-01-24 22:30:00,
2013-01-24 16:32:00,5.0,-6.5,30.53,SSW,210,0.0,1.0,58,0.00,,CLR,0.00,VWS V12.07,2013-01-24 22:32:00,
2013-01-24 16:33:00,5.0,-6.9,30.53,SSW,210,0.0,1.0,57,0.00,,CLR,0.00,VWS V12.07,2013-01-24 22:33:00,
2013-01-24 16:34:00,5.0,-6.5,30.53,SSW,210,0.0,1.0,58,0.00,,CLR,0.00,VWS V12.07,2013-01-24 22:34:00,
2013-01-24 16:35:00,5.0,-6.9,30.53,SSW,210,0.0,1.0,57,0.00,,CLR,0.00,VWS V12.07,2013-01-24 22:35:00,
2013-01-24 16:37:00,5.0,-6.9,30.53,SSW,210,0.0,1.0,57,0.00,,CLR,0.00,VWS V12.07,2013-01-24 22:37:00,
2013-01-24 16:38:00,5.0,-6.5,30.53,SSW,210,0.0,1.0,58,0.00,,CLR,0.00,VWS V12.07,2013-01-24 22:38:00,
2013-01-24 16:39:00,5.0,-6.9,30.53,SSW,210,0.0,1.0,57,0.00,,CLR,0.00,VWS V12.07,2013-01-24 22:39:00,
2013-01-24 16:40:00,5.0,-7.3,30.53,SSW,210,0.0,1.0,56,0.00,,CLR,0.00,VWS V12.07,2013-01-24 22:40:00,
2013-01-24 16:42:00,4.8,-7.1,30.53,SSW,210,0.0,1.0,57,0.00,,CLR,0.00,VWS V12.07,2013-01-24 22:42:00,
2013-01-24 16:43:00,4.8,-7.4,30.53,SSW,210,0.0,1.0,56,0.00,,CLR,0.00,VWS V12.07,2013-01-24 22:43:00,
2013-01-24 16:45:00,4.8,-7.4,30.53,SSW,210,0.0,1.0,56,0.00,,CLR,0.00,VWS V12.07,2013-01-24 22:45:00,
2013-01-24 16:48:00,4.8,-7.1,30.52,SSW,210,0.0,0.0,57,0.00,,CLR,0.00,VWS V12.07,2013-01-24 22:48:00,
2013-01-24 16:50:00,4.8,-7.1,30.52,SSW,210,0.0,1.0,57,0.00,,CLR,0.00,VWS V12.07,2013-01-24 22:50:00,
2013-01-24 16:51:00,4.8,-7.1,30.52,SSW,210,0.0,1.0,57,0.00,,CLR,0.00,VWS V12.07,2013-01-24 22:51:00,
2013-01-24 16:53:00,4.8,-6.7,30.52,SSW,210,0.0,1.0,58,0.00,,CLR,0.00,VWS V12.07,2013-01-24 22:53:00,
2013-01-24 16:54:00,4.8,-6.7,30.52,SSW,210,0.0,0.0,58,0.00,,CLR,0.00,VWS V12.07,2013-01-24 22:54:00,
2013-01-24 16:55:00,4.8,-6.4,30.52,SSW,210,0.0,1.0,59,0.00,,CLR,0.00,VWS V12.07,2013-01-24 22:55:00,
2013-01-24 16:56:00,4.8,-6.0,30.52,SSW,210,0.0,1.0,60,0.00,,CLR,0.00,VWS V12.07,2013-01-24 22:56:00,
2013-01-24 16:59:00,4.8,-6.4,30.52,SSW,210,0.0,1.0,59,0.00,,SCT120,0.00,VWS V12.07,2013-01-24 22:59:00,
2013-01-24 17:00:00,4.8,-6.4,30.50,SSW,210,0.0,1.0,59,0.00,,SCT120,0.00,VWS V12.07,2013-01-24 23:00:00,
2013-01-24 17:01:00,4.8,-6.0,30.50,SSW,210,0.0,1.0,60,0.00,,SCT120,0.00,VWS V12.07,2013-01-24 23:01:00,
2013-01-24 17:04:00,4.8,-6.4,30.50,SSW,210,0.0,1.0,59,0.00,,SCT120,0.00,VWS V12.07,2013-01-24 23:04:00,
2013-01-24 17:06:00,4.8,-6.0,30.50,SSW,210,0.0,1.0,60,0.00,,SCT120,0.00,VWS V12.07,2013-01-24 23:06:00,
2013-01-24 17:09:00,5.0,-5.8,30.50,SSW,210,0.0,1.0,60,0.00,,SCT120,0.00,VWS V12.07,2013-01-24 23:09:00,
2013-01-24 17:10:00,5.0,-5.8,30.50,SSW,210,0.0,1.0,60,0.00,,SCT120,0.00,VWS V12.07,2013-01-24 23:10:00,
2013-01-24 17:11:00,5.0,-5.8,30.50,SSW,210,0.0,1.0,60,0.00,,SCT120,0.00,VWS V12.07,2013-01-24 23:11:00,
2013-01-24 17:12:00,5.0,-5.8,30.50,SSW,210,0.0,1.0,60,0.00,,SCT120,0.00,VWS V12.07,2013-01-24 23:12:00,
2013-01-24 17:14:00,5.0,-5.8,30.50,SSW,210,1.0,1.0,60,0.00,,SCT120,0.00,VWS V12.07,2013-01-24 23:14:00,
2013-01-24 17:15:00,5.0,-5.8,30.50,SSW,210,0.0,1.0,60,0.00,,SCT120,0.00,VWS V12.07,2013-01-24 23:15:00,
2013-01-24 17:16:00,5.0,-6.2,30.50,SSW,210,0.0,1.0,59,0.00,,SCT120,0.00,VWS V12.07,2013-01-24 23:16:00,
2013-01-24 17:17:00,5.0,-6.2,30.50,SSW,210,0.0,1.0,59,0.00,,SCT120,0.00,VWS V12.07,2013-01-24 23:17:00,
2013-01-24 17:20:00,5.0,-6.2,30.50,SSW,210,0.0,1.0,59,0.00,,SCT120,0.00,VWS V12.07,2013-01-24 23:20:00,
2013-01-24 17:21:00,5.0,-6.2,30.50,SSW,210,1.0,1.0,59,0.00,,SCT120,0.00,VWS V12.07,2013-01-24 23:21:00,
2013-01-24 17:22:00,5.0,-6.2,30.50,SSW,210,0.0,1.0,59,0.00,,SCT120,0.00,VWS V12.07,2013-01-24 23:22:00,
2013-01-24 17:26:00,5.0,-6.2,30.50,SSW,210,0.0,1.0,59,0.00,,SCT120,0.00,VWS V12.07,2013-01-24 23:26:00,
2013-01-24 17:27:00,5.0,-5.8,30.50,SSW,210,0.0,1.0,60,0.00,,SCT120,0.00,VWS V12.07,2013-01-24 23:27:00,
2013-01-24 17:31:00,5.0,-5.8,30.49,SSW,210,0.0,1.0,60,0.00,,SCT120,0.00,VWS V12.07,2013-01-24 23:31:00,
2013-01-24 17:32:00,5.0,-5.8,30.49,SSW,210,1.0,1.0,60,0.00,,SCT120,0.00,VWS V12.07,2013-01-24 23:32:00,
2013-01-24 17:36:00,5.0,-6.2,30.49,SSW,210,0.0,1.0,59,0.00,,OVC110,0.00,VWS V12.07,2013-01-24 23:36:00,
2013-01-24 17:37:00,5.0,-5.8,30.49,SSW,210,0.0,1.0,60,0.00,,OVC110,0.00,VWS V12.07,2013-01-24 23:37:00,
2013-01-24 17:38:00,5.0,-5.8,30.49,SSW,210,0.0,1.0,60,0.00,,OVC110,0.00,VWS V12.07,2013-01-24 23:38:00,
2013-01-24 17:41:00,5.0,-5.8,30.49,SSW,210,1.0,1.0,60,0.00,,OVC110,0.00,VWS V12.07,2013-01-24 23:41:00,
2013-01-24 17:42:00,5.0,-5.8,30.49,SSW,210,0.0,2.0,60,0.00,,OVC110,0.00,VWS V12.07,2013-01-24 23:42:00,
2013-01-24 17:43:00,5.0,-5.8,30.49,SSW,210,0.0,2.0,60,0.00,,OVC110,0.00,VWS V12.07,2013-01-24 23:43:00,
2013-01-24 17:47:00,5.0,-5.8,30.48,SSW,210,0.0,2.0,60,0.00,,OVC110,0.00,VWS V12.07,2013-01-24 23:47:00,
2013-01-24 17:48:00,5.0,-5.8,30.48,SSW,210,1.0,2.0,60,0.00,,OVC100,0.00,VWS V12.07,2013-01-24 23:48:00,
2013-01-24 17:49:00,5.0,-6.5,30.48,SE,143,0.0,2.0,58,0.00,,OVC100,0.00,VWS V12.07,2013-01-24 23:49:00,
2013-01-24 17:52:00,5.0,-5.8,30.48,SE,143,0.0,2.0,60,0.00,,OVC100,0.00,VWS V12.07,2013-01-24 23:52:00,
2013-01-24 17:53:00,5.0,-5.8,30.48,SE,143,0.0,2.0,60,0.00,,OVC100,0.00,VWS V12.07,2013-01-24 23:53:00,
2013-01-24 17:54:00,5.2,-5.3,30.48,SE,143,0.0,2.0,61,0.00,,OVC100,0.00,VWS V12.07,2013-01-24 23:54:00,
2013-01-24 17:57:00,5.2,-5.7,30.48,SE,143,1.0,2.0,60,0.00,,OVC100,0.00,VWS V12.07,2013-01-24 23:57:00,
2013-01-24 17:58:00,5.2,-5.7,30.48,SE,143,0.0,2.0,60,0.00,,OVC100,0.00,VWS V12.07,2013-01-24 23:58:00,
2013-01-24 17:59:00,5.2,-6.0,30.48,SE,143,0.0,1.0,59,0.00,,OVC100,0.00,VWS V12.07,2013-01-24 23:59:00,
2013-01-24 18:02:00,5.2,-6.0,30.48,SE,143,0.0,1.0,59,0.00,,OVC100,0.00,VWS V12.07,2013-01-25 00:02:00,
2013-01-24 18:03:00,5.2,-5.7,30.48,SE,143,0.0,1.0,60,0.00,,OVC100,0.00,VWS V12.07,2013-01-25 00:03:00,
2013-01-24 18:04:00,5.2,-5.7,30.48,SE,143,0.0,1.0,60,0.00,,OVC100,0.00,VWS V12.07,2013-01-25 00:04:00,
2013-01-24 18:05:00,5.2,-5.7,30.48,SE,143,0.0,1.0,60,0.00,,OVC100,0.00,VWS V12.07,2013-01-25 00:05:00,
2013-01-24 18:08:00,5.2,-5.3,30.48,SE,143,1.0,1.0,61,0.00,,OVC100,0.00,VWS V12.07,2013-01-25 00:08:00,
2013-01-24 18:09:00,5.2,-5.3,30.48,SE,143,0.0,1.0,61,0.00,,OVC100,0.00,VWS V12.07,2013-01-25 00:09:00,
2013-01-24 18:10:00,5.2,-5.0,30.48,SE,143,0.0,1.0,62,0.00,,OVC100,0.00,VWS V12.07,2013-01-25 00:10:00,
2013-01-24 18:13:00,5.0,-5.5,30.48,SE,143,1.0,1.0,61,0.00,,OVC100,0.00,VWS V12.07,2013-01-25 00:13:00,
2013-01-24 18:14:00,5.0,-5.5,30.48,SE,143,0.0,1.0,61,0.00,,OVC100,0.00,VWS V12.07,2013-01-25 00:14:00,
2013-01-24 18:16:00,5.0,-5.5,30.48,SE,143,0.0,1.0,61,0.00,,OVC100,0.00,VWS V12.07,2013-01-25 00:16:00,
2013-01-24 18:19:00,5.0,-5.5,30.48,SE,143,0.0,1.0,61,0.00,,OVC100,0.00,VWS V12.07,2013-01-25 00:19:00,
2013-01-24 18:21:00,5.0,-5.5,30.48,SE,143,0.0,1.0,61,0.00,,OVC100,0.00,VWS V12.07,2013-01-25 00:21:00,
2013-01-24 18:24:00,5.0,-5.8,30.48,SE,143,1.0,1.0,60,0.00,,OVC100,0.00,VWS V12.07,2013-01-25 00:24:00,
2013-01-24 18:26:00,5.0,-5.8,30.48,SE,143,0.0,1.0,60,0.00,,OVC100,0.00,VWS V12.07,2013-01-25 00:26:00,
2013-01-24 18:29:00,5.0,-5.5,30.48,SE,143,1.0,1.0,61,0.00,,OVC100,0.00,VWS V12.07,2013-01-25 00:29:00,
2013-01-24 18:31:00,5.0,-5.8,30.48,SE,145,0.0,1.0,60,0.00,,OVC100,0.00,VWS V12.07,2013-01-25 00:31:00,
2013-01-24 18:34:00,5.0,-5.8,30.48,SE,145,0.0,1.0,60,0.00,,OVC100,0.00,VWS V12.07,2013-01-25 00:34:00,
2013-01-24 18:35:00,5.0,-5.8,30.48,SE,145,0.0,1.0,60,0.00,,OVC100,0.00,VWS V12.07,2013-01-25 00:35:00,
2013-01-24 18:36:00,5.0,-5.5,30.48,SE,145,0.0,1.0,61,0.00,,OVC100,0.00,VWS V12.07,2013-01-25 00:36:00,
2013-01-24 18:39:00,5.0,-6.2,30.48,SE,145,0.0,1.0,59,0.00,,OVC100,0.00,VWS V12.07,2013-01-25 00:39:00,
2013-01-24 18:40:00,5.0,-6.2,30.48,SE,145,0.0,1.0,59,0.00,,OVC100,0.00,VWS V12.07,2013-01-25 00:40:00,
2013-01-24 18:42:00,5.0,-6.2,30.48,SE,145,0.0,1.0,59,0.00,,OVC100,0.00,VWS V12.07,2013-01-25 00:42:00,
2013-01-24 18:44:00,5.0,-6.9,30.48,SE,145,0.0,1.0,57,0.00,,OVC100,0.00,VWS V12.07,2013-01-25 00:44:00,
2013-01-24 18:45:00,5.0,-6.9,30.47,SE,145,1.0,1.0,57,0.00,,OVC100,0.00,VWS V12.07,2013-01-25 00:45:00,
2013-01-24 18:47:00,5.0,-6.5,30.47,SE,145,0.0,1.0,58,0.00,,OVC100,0.00,VWS V12.07,2013-01-25 00:47:00,
2013-01-24 18:50:00,5.0,-6.2,30.47,SE,145,1.0,1.0,59,0.00,,OVC100,0.00,VWS V12.07,2013-01-25 00:50:00,
2013-01-24 18:51:00,5.0,-6.2,30.47,SE,145,1.0,1.0,59,0.00,,OVC100,0.00,VWS V12.07,2013-01-25 00:51:00,
2013-01-24 18:52:00,5.0,-6.5,30.47,SE,145,1.0,1.0,58,0.00,,OVC100,0.00,VWS V12.07,2013-01-25 00:52:00,
2013-01-24 18:55:00,5.0,-6.2,30.47,SE,146,0.0,1.0,59,0.00,,OVC100,0.00,VWS V12.07,2013-01-25 00:55:00,
2013-01-24 18:56:00,5.0,-6.2,30.47,SE,146,0.0,1.0,59,0.00,,OVC100,0.00,VWS V12.07,2013-01-25 00:56:00,
2013-01-24 18:57:00,5.0,-6.2,30.47,SE,146,1.0,1.0,59,0.00,,OVC100,0.00,VWS V12.07,2013-01-25 00:57:00,
2013-01-24 19:00:00,5.0,-6.2,30.47,SE,146,0.0,2.0,59,0.00,,OVC100,0.00,VWS V12.07,2013-01-25 01:00:00,
2013-01-24 19:01:00,5.0,-5.8,30.47,SE,146,0.0,2.0,60,0.00,,OVC100,0.00,VWS V12.07,2013-01-25 01:01:00,
2013-01-24 19:02:00,5.0,-5.8,30.47,SE,146,1.0,2.0,60,0.00,,OVC100,0.00,VWS V12.07,2013-01-25 01:02:00,
2013-01-24 19:03:00,5.0,-6.2,30.47,SE,146,0.0,2.0,59,0.00,,OVC100,0.00,VWS V12.07,2013-01-25 01:03:00,
2013-01-24 19:05:00,5.0,-5.8,30.47,SE,146,0.0,2.0,60,0.00,,OVC100,0.00,VWS V12.07,2013-01-25 01:05:00,
2013-01-24 19:06:00,5.0,-5.8,30.47,SE,146,1.0,2.0,60,0.00,,OVC100,0.00,VWS V12.07,2013-01-25 01:06:00,
2013-01-24 19:07:00,5.0,-5.8,30.47,SE,146,1.0,2.0,60,0.00,,OVC100,0.00,VWS V12.07,2013-01-25 01:07:00,
2013-01-24 19:08:00,5.0,-5.8,30.47,SE,146,0.0,2.0,60,0.00,,OVC100,0.00,VWS V12.07,2013-01-25 01:08:00,
2013-01-24 19:10:00,5.0,-5.8,30.47,SE,146,2.0,2.0,60,0.00,,OVC100,0.00,VWS V12.07,2013-01-25 01:10:00,
2013-01-24 19:12:00,5.0,-5.8,30.47,SE,146,0.0,2.0,60,0.00,,OVC100,0.00,VWS V12.07,2013-01-25 01:12:00,
2013-01-24 19:13:00,5.0,-5.8,30.47,SE,146,0.0,2.0,60,0.00,,OVC100,0.00,VWS V12.07,2013-01-25 01:13:00,
2013-01-24 19:16:00,5.0,-5.8,30.47,SE,146,1.0,2.0,60,0.00,,OVC100,0.00,VWS V12.07,2013-01-25 01:16:00,
2013-01-24 19:17:00,5.0,-5.8,30.47,SE,146,0.0,2.0,60,0.00,,OVC100,0.00,VWS V12.07,2013-01-25 01:17:00,
2013-01-24 19:18:00,5.0,-5.8,30.47,SE,146,0.0,2.0,60,0.00,,OVC100,0.00,VWS V12.07,2013-01-25 01:18:00,
2013-01-24 19:21:00,5.0,-5.5,30.47,SE,146,0.0,1.0,61,0.00,,OVC100,0.00,VWS V12.07,2013-01-25 01:21:00,
2013-01-24 19:23:00,5.0,-5.2,30.47,SE,146,0.0,1.0,62,0.00,,OVC100,0.00,VWS V12.07,2013-01-25 01:23:00,
2013-01-24 19:24:00,5.0,-4.8,30.47,SE,146,0.0,2.0,63,0.00,,OVC100,0.00,VWS V12.07,2013-01-25 01:24:00,
2013-01-24 19:26:00,5.0,-5.5,30.47,SE,146,1.0,2.0,61,0.00,,OVC100,0.00,VWS V12.07,2013-01-25 01:26:00,
2013-01-24 19:28:00,5.0,-5.5,30.47,SE,146,1.0,2.0,61,0.00,,OVC100,0.00,VWS V12.07,2013-01-25 01:28:00,
2013-01-24 19:29:00,5.0,-5.5,30.47,SE,146,0.0,1.0,61,0.00,,OVC100,0.00,VWS V12.07,2013-01-25 01:29:00,
2013-01-24 19:31:00,5.0,-4.8,30.48,SE,146,0.0,1.0,63,0.00,,OVC100,0.00,VWS V12.07,2013-01-25 01:31:00,
2013-01-24 19:33:00,5.0,-5.5,30.48,SE,146,0.0,1.0,61,0.00,,OVC100,0.00,VWS V12.07,2013-01-25 01:33:00,
2013-01-24 19:34:00,5.0,-5.5,30.48,SE,146,1.0,1.0,61,0.00,,OVC090,0.00,VWS V12.07,2013-01-25 01:34:00,
2013-01-24 19:35:00,5.0,-5.5,30.48,SE,146,0.0,1.0,61,0.00,,OVC090,0.00,VWS V12.07,2013-01-25 01:35:00,
2013-01-24 19:37:00,5.0,-5.5,30.48,SSE,152,0.0,1.0,61,0.00,,OVC090,0.00,VWS V12.07,2013-01-25 01:37:00,
2013-01-24 19:39:00,5.0,-5.5,30.48,SSE,152,0.0,1.0,61,0.00,,OVC090,0.00,VWS V12.07,2013-01-25 01:39:00,
2013-01-24 19:40:00,5.0,-5.5,30.48,SSE,152,0.0,1.0,61,0.00,,OVC090,0.00,VWS V12.07,2013-01-25 01:40:00,
2013-01-24 19:42:00,5.0,-5.2,30.48,SSE,152,0.0,1.0,62,0.00,,OVC090,0.00,VWS V12.07,2013-01-25 01:42:00,
2013-01-24 19:44:00,5.0,-5.2,30.48,SSE,152,1.0,1.0,62,0.00,,OVC090,0.00,VWS V12.07,2013-01-25 01:44:00,
2013-01-24 19:45:00,5.0,-5.2,30.47,SSE,152,1.0,1.0,62,0.00,,OVC090,0.00,VWS V12.07,2013-01-25 01:45:00,
2013-01-24 19:47:00,5.0,-5.2,30.47,SSE,152,0.0,1.0,62,0.00,,OVC090,0.00,VWS V12.07,2013-01-25 01:47:00,
2013-01-24 19:49:00,5.2,-5.0,30.47,South,172,0.0,2.0,62,0.00,,OVC090,0.00,VWS V12.07,2013-01-25 01:49:00,
2013-01-24 19:50:00,5.2,-5.0,30.47,SSE,155,2.0,2.0,62,0.00,,OVC090,0.00,VWS V12.07,2013-01-25 01:50:00,
2013-01-24 19:51:00,5.2,-5.0,30.47,SSE,155,1.0,2.0,62,0.00,,OVC090,0.00,VWS V12.07,2013-01-25 01:51:00,
2013-01-24 19:53:00,5.2,-5.3,30.47,SSE,155,0.0,2.0,61,0.00,,OVC090,0.00,VWS V12.07,2013-01-25 01:53:00,
2013-01-24 19:54:00,5.2,-5.3,30.47,SSE,155,0.0,2.0,61,0.00,,OVC090,0.00,VWS V12.07,2013-01-25 01:54:00,
2013-01-24 19:55:00,5.2,-5.3,30.47,SSE,155,1.0,2.0,61,0.00,,OVC090,0.00,VWS V12.07,2013-01-25 01:55:00,
2013-01-24 19:56:00,5.2,-5.3,30.47,SSE,155,1.0,2.0,61,0.00,,OVC090,0.00,VWS V12.07,2013-01-25 01:56:00,
2013-01-24 19:58:00,5.2,-5.3,30.47,SSE,155,0.0,2.0,61,0.00,,OVC090,0.00,VWS V12.07,2013-01-25 01:58:00,
2013-01-24 20:00:00,5.2,-5.0,30.47,SSE,155,0.0,1.0,62,0.00,,OVC090,0.00,VWS V12.07,2013-01-25 02:00:00,
2013-01-24 20:01:00,5.2,-5.0,30.44,SSE,155,0.0,1.0,62,0.00,,OVC090,0.00,VWS V12.07,2013-01-25 02:01:00,
2013-01-24 20:02:00,5.2,-5.0,30.44,SSE,155,0.0,1.0,62,0.00,,OVC090,0.00,VWS V12.07,2013-01-25 02:02:00,
2013-01-24 20:03:00,5.2,-5.0,30.44,SSE,155,0.0,1.0,62,0.00,,OVC090,0.00,VWS V12.07,2013-01-25 02:03:00,
2013-01-24 20:05:00,5.2,-4.6,30.44,SSE,155,0.0,1.0,63,0.00,,OVC090,0.00,VWS V12.07,2013-01-25 02:05:00,
2013-01-24 20:06:00,5.2,-4.6,30.44,SSE,155,0.0,1.0,63,0.00,,OVC090,0.00,VWS V12.07,2013-01-25 02:06:00,
2013-01-24 20:07:00,5.2,-5.0,30.44,SSE,155,0.0,1.0,62,0.00,,OVC090,0.00,VWS V12.07,2013-01-25 02:07:00,
2013-01-24 20:08:00,5.2,-5.0,30.44,SSE,155,0.0,2.0,62,0.00,,OVC090,0.00,VWS V12.07,2013-01-25 02:08:00,
2013-01-24 20:10:00,5.2,-5.0,30.44,SSE,155,0.0,2.0,62,0.00,,OVC090,0.00,VWS V12.07,2013-01-25 02:10:00,
2013-01-24 20:12:00,5.2,-5.0,30.44,SSE,155,1.0,2.0,62,0.00,,OVC090,0.00,VWS V12.07,2013-01-25 02:12:00,
2013-01-24 20:13:00,5.2,-5.0,30.44,SSE,155,0.0,2.0,62,0.00,,OVC090,0.00,VWS V12.07,2013-01-25 02:13:00,
2013-01-24 20:15:00,5.2,-4.6,30.44,SSE,155,0.0,2.0,63,0.00,,OVC090,0.00,VWS V12.07,2013-01-25 02:15:00,
2013-01-24 20:17:00,5.2,-4.6,30.44,SSE,155,0.0,2.0,63,0.00,,OVC090,0.00,VWS V12.07,2013-01-25 02:17:00,
2013-01-24 20:18:00,5.2,-4.6,30.44,SSE,155,0.0,2.0,63,0.00,,OVC090,0.00,VWS V12.07,2013-01-25 02:18:00,
2013-01-24 20:20:00,5.2,-4.3,30.44,SSE,156,0.0,2.0,64,0.00,,OVC090,0.00,VWS V12.07,2013-01-25 02:20:00,
2013-01-24 20:23:00,5.2,-5.0,30.44,SSE,168,0.0,3.0,62,0.00,,OVC090,0.00,VWS V12.07,2013-01-25 02:23:00,
2013-01-24 20:26:00,5.2,-4.6,30.44,SSE,167,0.0,3.0,63,0.00,,OVC090,0.00,VWS V12.07,2013-01-25 02:26:00,
2013-01-24 20:28:00,5.2,-4.6,30.44,SSE,167,0.0,0.0,63,0.00,,OVC090,0.00,VWS V12.07,2013-01-25 02:28:00,
2013-01-24 20:29:00,5.4,-4.4,30.44,SSE,167,0.0,1.0,63,0.00,,OVC090,0.00,VWS V12.07,2013-01-25 02:29:00,
2013-01-24 20:31:00,5.4,-4.4,30.43,SSE,167,1.0,2.0,63,0.00,,OVC090,0.00,VWS V12.07,2013-01-25 02:31:00,
2013-01-24 20:33:00,5.4,-4.8,30.43,SE,146,1.0,3.0,62,0.00,,OVC090,0.00,VWS V12.07,2013-01-25 02:33:00,
2013-01-24 20:35:00,5.2,-5.0,30.43,SE,146,0.0,3.0,62,0.00,,OVC085,0.00,VWS V12.07,2013-01-25 02:35:00,
2013-01-24 20:37:00,5.2,-4.6,30.43,SE,146,1.0,3.0,63,0.00,,OVC085,0.00,VWS V12.07,2013-01-25 02:37:00,
2013-01-24 20:38:00,5.2,-4.3,30.43,SSE,147,0.0,3.0,64,0.00,,OVC085,0.00,VWS V12.07,2013-01-25 02:38:00,
2013-01-24 20:40:00,5.2,-4.3,30.43,SSE,147,1.0,3.0,64,0.00,,OVC085,0.00,VWS V12.07,2013-01-25 02:40:00,
2013-01-24 20:42:00,5.2,-4.3,30.43,SE,146,0.0,4.0,64,0.00,,OVC085,0.00,VWS V12.07,2013-01-25 02:42:00,
2013-01-24 20:43:00,5.2,-4.0,30.43,SE,136,4.0,4.0,65,0.00,,OVC085,0.00,VWS V12.07,2013-01-25 02:43:00,
2013-01-24 20:44:00,5.2,-4.0,30.43,SSE,148,1.0,5.0,65,0.00,,OVC085,0.00,VWS V12.07,2013-01-25 02:44:00,
2013-01-24 20:45:00,5.0,-3.9,30.42,SSE,150,0.0,5.0,66,0.00,,OVC085,0.00,VWS V12.07,2013-01-25 02:45:00,
2013-01-24 20:47:00,5.0,-3.5,30.42,SSE,150,0.0,5.0,67,0.00,,OVC085,0.00,VWS V12.07,2013-01-25 02:47:00,
2013-01-24 20:49:00,5.0,-3.2,30.42,SSE,150,0.0,2.0,68,0.00,,OVC075,0.00,VWS V12.07,2013-01-25 02:49:00,
2013-01-24 20:51:00,5.0,-2.9,30.42,SSE,154,2.0,2.0,69,0.00,,OVC075,0.00,VWS V12.07,2013-01-25 02:51:00,
2013-01-24 20:53:00,4.8,-2.8,30.42,SSE,154,0.0,2.0,70,0.00,,OVC075,0.00,VWS V12.07,2013-01-25 02:53:00,
2013-01-24 20:54:00,4.8,-2.8,30.42,SSE,154,1.0,2.0,70,0.00,,OVC075,0.00,VWS V12.07,2013-01-25 02:54:00,
2013-01-24 20:56:00,4.8,-2.5,30.42,South,169,3.0,4.0,71,0.00,,OVC075,0.00,VWS V12.07,2013-01-25 02:56:00,
2013-01-24 20:58:00,4.8,-2.5,30.42,SSE,150,0.0,3.0,71,0.00,,OVC075,0.00,VWS V12.07,2013-01-25 02:58:00,
2013-01-24 20:59:00,4.8,-2.5,30.42,SE,138,4.0,4.0,71,0.00,,OVC075,0.00,VWS V12.07,2013-01-25 02:59:00,
2013-01-24 21:01:00,4.7,-2.3,30.38,South,169,0.0,5.0,72,0.00,,OVC075,0.00,VWS V12.07,2013-01-25 03:01:00,
2013-01-24 21:03:00,4.7,-2.3,30.38,SSE,152,0.0,5.0,72,0.00,,OVC075,0.00,VWS V12.07,2013-01-25 03:03:00,
2013-01-24 21:04:00,4.7,-2.3,30.38,SSE,154,0.0,5.0,72,0.00,,OVC075,0.00,VWS V12.07,2013-01-25 03:04:00,
2013-01-24 21:06:00,4.7,-2.0,30.38,SSE,160,1.0,5.0,73,0.00,,OVC075,0.00,VWS V12.07,2013-01-25 03:06:00,
2013-01-24 21:08:00,4.7,-2.0,30.38,SSE,167,3.0,4.0,73,0.00,,OVC075,0.00,VWS V12.07,2013-01-25 03:08:00,
2013-01-24 21:09:00,4.5,-2.2,30.38,SSE,152,1.0,5.0,73,0.00,,OVC075,0.00,VWS V12.07,2013-01-25 03:09:00,
2013-01-24 21:10:00,4.5,-2.2,30.38,South,174,2.0,5.0,73,0.00,,OVC075,0.00,VWS V12.07,2013-01-25 03:10:00,
2013-01-24 21:12:00,4.5,-2.2,30.38,SSE,158,1.0,5.0,73,0.00,,OVC075,0.00,VWS V12.07,2013-01-25 03:12:00,
2013-01-24 21:13:00,4.5,-1.9,30.38,SE,143,1.0,5.0,74,0.00,,OVC075,0.00,VWS V12.07,2013-01-25 03:13:00,
2013-01-24 21:15:00,4.5,-1.9,30.38,South,169,1.0,5.0,74,0.00,,OVC075,0.00,VWS V12.07,2013-01-25 03:15:00,
2013-01-24 21:17:00,4.5,-1.9,30.38,SSE,148,1.0,5.0,74,0.00,,OVC075,0.00,VWS V12.07,2013-01-25 03:17:00,
2013-01-24 21:19:00,4.5,-1.7,30.38,SSE,159,1.0,2.0,75,0.00,,OVC075,0.00,VWS V12.07,2013-01-25 03:19:00,
2013-01-24 21:20:00,4.5,-1.7,30.38,SSE,159,0.0,2.0,75,0.00,,OVC075,0.00,VWS V12.07,2013-01-25 03:20:00,
2013-01-24 21:22:00,4.5,-1.7,30.38,SSE,159,1.0,2.0,75,0.00,,OVC075,0.00,VWS V12.07,2013-01-25 03:22:00,
2013-01-24 21:24:00,4.5,-1.4,30.38,SSE,159,1.0,2.0,76,0.00,,OVC075,0.00,VWS V12.07,2013-01-25 03:24:00,
2013-01-24 21:25:00,4.7,-1.2,30.38,SSE,164,0.0,2.0,76,0.00,,OVC075,0.00,VWS V12.07,2013-01-25 03:25:00,
2013-01-24 21:27:00,4.7,-1.2,30.38,SSE,164,0.0,2.0,76,0.00,,OVC075,0.00,VWS V12.07,2013-01-25 03:27:00,
2013-01-24 21:29:00,4.7,-1.2,30.38,SSE,164,1.0,2.0,76,0.00,,OVC075,0.00,VWS V12.07,2013-01-25 03:29:00,
2013-01-24 21:31:00,4.7,-1.2,30.38,SSE,165,1.0,2.0,76,0.00,,OVC075,0.00,VWS V12.07,2013-01-25 03:31:00,
2013-01-24 21:32:00,4.5,-1.1,30.38,SSE,158,1.0,2.0,77,0.00,,OVC075,0.00,VWS V12.07,2013-01-25 03:32:00,
2013-01-24 21:34:00,4.5,-1.1,30.38,SSE,158,0.0,2.0,77,0.00,,,0.00,VWS V12.07,2013-01-25 03:34:00,
2013-01-24 21:36:00,4.5,-1.1,30.38,SSE,158,1.0,2.0,77,0.00,,,0.00,VWS V12.07,2013-01-25 03:36:00,
2013-01-24 21:37:00,4.5,-1.1,30.38,SSE,158,2.0,3.0,77,0.00,,,0.00,VWS V12.07,2013-01-25 03:37:00,
2013-01-24 21:39:00,4.5,-1.1,30.38,SSE,156,0.0,3.0,77,0.00,,,0.00,VWS V12.07,2013-01-25 03:39:00,
2013-01-24 21:41:00,4.5,-0.8,30.38,SSE,156,1.0,3.0,78,0.00,,,0.00,VWS V12.07,2013-01-25 03:41:00,
2013-01-24 21:42:00,4.5,-0.8,30.38,SSE,149,3.0,3.0,78,0.00,,,0.00,VWS V12.07,2013-01-25 03:42:00,
2013-01-24 21:44:00,4.5,-0.8,30.38,SSE,149,1.0,3.0,78,0.00,,,0.00,VWS V12.07,2013-01-25 03:44:00,
2013-01-24 21:46:00,4.5,-0.8,30.37,SSE,150,2.0,3.0,78,0.00,,,0.00,VWS V12.07,2013-01-25 03:46:00,
2013-01-24 21:47:00,4.5,-0.6,30.37,SSE,153,0.0,3.0,79,0.00,,,0.00,VWS V12.07,2013-01-25 03:47:00,
2013-01-24 21:50:00,4.5,-0.6,30.37,SSE,154,0.0,4.0,79,0.00,,,0.00,VWS V12.07,2013-01-25 03:50:00,
2013-01-24 21:51:00,4.7,-0.4,30.37,SSE,154,1.0,4.0,79,0.00,,,0.00,VWS V12.07,2013-01-25 03:51:00,
2013-01-24 21:52:00,4.7,-0.4,30.37,SSE,154,0.0,4.0,79,0.00,,,0.00,VWS V12.07,2013-01-25 03:52:00,
2013-01-24 21:53:00,4.7,-0.4,30.37,SSE,154,0.0,4.0,79,0.00,,,0.00,VWS V12.07,2013-01-25 03:53:00,
2013-01-24 21:56:00,4.7,-0.4,30.37,SE,138,1.0,4.0,79,0.00,,,0.00,VWS V12.07,2013-01-25 03:56:00,
2013-01-24 21:57:00,4.7,-0.4,30.37,SE,139,1.0,4.0,79,0.00,,,0.00,VWS V12.07,2013-01-25 03:57:00,
2013-01-24 21:58:00,4.7,-0.4,30.37,SE,139,2.0,3.0,79,0.00,,,0.00,VWS V12.07,2013-01-25 03:58:00,
2013-01-24 22:01:00,4.7,-0.4,30.37,SE,146,0.0,3.0,79,0.00,,,0.00,VWS V12.07,2013-01-25 04:01:00,
2013-01-24 22:02:00,4.7,-0.4,30.37,SE,146,1.0,3.0,79,0.00,,,0.00,VWS V12.07,2013-01-25 04:02:00,
2013-01-24 22:03:00,4.7,-0.4,30.37,SE,146,0.0,3.0,79,0.00,,,0.00,VWS V12.07,2013-01-25 04:03:00,
2013-01-24 22:06:00,4.7,-0.1,30.37,SE,146,2.0,3.0,80,0.00,,,0.00,VWS V12.07,2013-01-25 04:06:00,
2013-01-24 22:07:00,4.7,-0.1,30.37,SSE,148,3.0,3.0,80,0.00,,,0.00,VWS V12.07,2013-01-25 04:07:00,
2013-01-24 22:08:00,4.7,-0.1,30.37,SSE,148,1.0,3.0,80,0.00,,,0.00,VWS V12.07,2013-01-25 04:08:00,
2013-01-24 22:12:00,4.7,-0.1,30.37,SSE,150,0.0,5.0,80,0.00,,,0.00,VWS V12.07,2013-01-25 04:12:00,
2013-01-24 22:13:00,4.7,-0.1,30.37,SSE,153,2.0,5.0,80,0.00,,,0.00,VWS V12.07,2013-01-25 04:13:00,
2013-01-24 22:14:00,4.7,-0.1,30.37,SSE,148,1.0,5.0,80,0.00,,,0.00,VWS V12.07,2013-01-25 04:14:00,
2013-01-24 22:17:00,4.7,-0.1,30.36,SSE,160,2.0,5.0,80,0.00,,,0.00,VWS V12.07,2013-01-25 04:17:00,
2013-01-24 22:19:00,4.7,-0.1,30.36,SSE,147,0.0,4.0,80,0.00,,,0.00,VWS V12.07,2013-01-25 04:19:00,
2013-01-24 22:22:00,4.7,-0.1,30.36,SSE,163,2.0,4.0,80,0.00,,,0.00,VWS V12.07,2013-01-25 04:22:00,
2013-01-24 22:24:00,4.7,-0.1,30.36,SSE,167,1.0,4.0,80,0.00,,,0.00,VWS V12.07,2013-01-25 04:24:00,
2013-01-24 22:25:00,4.7,-0.1,30.36,SSE,166,1.0,4.0,80,0.00,,,0.00,VWS V12.07,2013-01-25 04:25:00,
2013-01-24 22:27:00,4.7,-0.1,30.36,SSE,154,2.0,4.0,80,0.00,,,0.00,VWS V12.07,2013-01-25 04:27:00,
2013-01-24 22:29:00,4.7,-0.1,30.36,SSE,157,3.0,5.0,80,0.00,,,0.00,VWS V12.07,2013-01-25 04:29:00,
2013-01-24 22:30:00,4.7,-0.1,30.35,SSE,148,2.0,5.0,80,0.00,,,0.00,VWS V12.07,2013-01-25 04:30:00,
2013-01-24 22:32:00,4.7,-0.1,30.35,SSE,158,1.0,5.0,80,0.00,,,0.00,VWS V12.07,2013-01-25 04:32:00,
2013-01-24 22:33:00,4.7,0.2,30.35,SSE,157,2.0,5.0,81,0.00,,,0.00,VWS V12.07,2013-01-25 04:33:00,
2013-01-24 22:35:00,4.7,0.2,30.35,SE,131,4.0,5.0,81,0.00,,,0.00,VWS V12.07,2013-01-25 04:35:00,
2013-01-24 22:37:00,4.7,0.2,30.35,South,169,0.0,5.0,81,0.00,,,0.00,VWS V12.07,2013-01-25 04:37:00,
2013-01-24 22:38:00,4.7,0.2,30.35,South,169,1.0,5.0,81,0.00,,,0.00,VWS V12.07,2013-01-25 04:38:00,
2013-01-24 22:40:00,4.7,0.2,30.35,SSE,164,1.0,2.0,81,0.00,,,0.00,VWS V12.07,2013-01-25 04:40:00,
2013-01-24 22:42:00,4.7,0.2,30.35,SSE,152,3.0,3.0,81,0.00,,,0.00,VWS V12.07,2013-01-25 04:42:00,
2013-01-24 22:44:00,4.7,0.2,30.35,SSE,166,2.0,3.0,81,0.00,,,0.00,VWS V12.07,2013-01-25 04:44:00,
2013-01-24 22:45:00,4.7,0.2,30.35,SSE,152,2.0,3.0,81,0.00,,,0.00,VWS V12.07,2013-01-25 04:45:00,
2013-01-24 22:46:00,4.7,0.2,30.35,SSE,160,1.0,5.0,81,0.00,,,0.00,VWS V12.07,2013-01-25 04:46:00,
2013-01-24 22:47:00,4.7,0.2,30.35,SSE,154,1.0,5.0,81,0.00,,,0.00,VWS V12.07,2013-01-25 04:47:00,
2013-01-24 22:49:00,4.7,0.2,30.35,SSE,152,2.0,4.0,81,0.00,,,0.00,VWS V12.07,2013-01-25 04:49:00,
2013-01-24 22:50:00,4.7,0.2,30.35,SSE,156,0.0,4.0,81,0.00,,,0.00,VWS V12.07,2013-01-25 04:50:00,
2013-01-24 22:52:00,4.7,0.2,30.35,SSE,148,2.0,4.0,81,0.00,,,0.00,VWS V12.07,2013-01-25 04:52:00,
2013-01-24 22:55:00,4.7,0.2,30.35,SSE,150,2.0,5.0,81,0.00,,,0.00,VWS V12.07,2013-01-25 04:55:00,
2013-01-24 22:57:00,4.7,0.2,30.35,SSE,163,1.0,5.0,81,0.00,,,0.00,VWS V12.07,2013-01-25 04:57:00,
2013-01-24 22:58:00,4.7,0.2,30.35,SSE,162,1.0,5.0,81,0.00,,,0.00,VWS V12.07,2013-01-25 04:58:00,
2013-01-24 23:00:00,4.7,0.2,30.33,SSE,156,1.0,4.0,81,0.00,,,0.00,VWS V12.07,2013-01-25 05:00:00,
2013-01-24 23:02:00,4.8,0.3,30.33,SSE,156,1.0,4.0,81,0.00,,,0.00,VWS V12.07,2013-01-25 05:02:00,
2013-01-24 23:03:00,4.8,0.3,30.33,SSE,158,1.0,4.0,81,0.00,,,0.00,VWS V12.07,2013-01-25 05:03:00,
2013-01-24 23:06:00,4.8,0.5,30.33,SSE,158,1.0,4.0,82,0.00,,,0.00,VWS V12.07,2013-01-25 05:06:00,
2013-01-24 23:08:00,4.8,0.5,30.33,SSE,164,0.0,2.0,82,0.00,,,0.00,VWS V12.07,2013-01-25 05:08:00,
2013-01-24 23:11:00,4.8,0.5,30.33,SSE,149,3.0,3.0,82,0.00,,,0.00,VWS V12.07,2013-01-25 05:11:00,
2013-01-24 23:13:00,4.8,0.5,30.33,SSE,155,0.0,3.0,82,0.00,,,0.00,VWS V12.07,2013-01-25 05:13:00,
2013-01-24 23:14:00,4.8,0.5,30.33,SSE,155,1.0,3.0,82,0.00,,,0.00,VWS V12.07,2013-01-25 05:14:00,
2013-01-24 23:16:00,4.8,0.5,30.33,SSE,155,2.0,3.0,82,0.00,,,0.00,VWS V12.07,2013-01-25 05:16:00,
2013-01-24 23:18:00,4.8,0.5,30.33,SSE,161,1.0,3.0,82,0.00,,,0.00,VWS V12.07,2013-01-25 05:18:00,
2013-01-24 23:19:00,4.8,0.5,30.33,SSE,158,2.0,3.0,82,0.00,,,0.00,VWS V12.07,2013-01-25 05:19:00,
2013-01-24 23:22:00,4.8,0.5,30.33,SSE,151,2.0,3.0,82,0.00,,,0.00,VWS V12.07,2013-01-25 05:22:00,
2013-01-24 23:23:00,4.8,0.5,30.33,SSE,148,1.0,3.0,82,0.00,,,0.00,VWS V12.07,2013-01-25 05:23:00,
2013-01-24 23:25:00,4.8,0.5,30.33,SE,145,1.0,3.0,82,0.00,,,0.00,VWS V12.07,2013-01-25 05:25:00,
2013-01-24 23:27:00,4.8,0.5,30.33,SE,145,1.0,3.0,82,0.00,,,0.00,VWS V12.07,2013-01-25 05:27:00,
2013-01-24 23:28:00,4.8,0.5,30.33,SE,142,1.0,6.0,82,0.00,,,0.00,VWS V12.07,2013-01-25 05:28:00,
2013-01-24 23:30:00,4.8,0.5,30.32,SE,135,0.0,6.0,82,0.00,,,0.00,VWS V12.07,2013-01-25 05:30:00,
2013-01-24 23:32:00,4.8,0.5,30.32,South,169,0.0,6.0,82,0.00,,,0.00,VWS V12.07,2013-01-25 05:32:00,
2013-01-24 23:34:00,4.8,0.5,30.32,SE,143,5.0,6.0,82,0.00,,,0.00,VWS V12.07,2013-01-25 05:34:00,
2013-01-24 23:35:00,4.8,0.5,30.32,SSE,165,2.0,6.0,82,0.00,,,0.00,VWS V12.07,2013-01-25 05:35:00,
2013-01-24 23:36:00,4.8,0.5,30.32,SSE,149,2.0,6.0,82,0.00,,,0.00,VWS V12.07,2013-01-25 05:36:00,
2013-01-24 23:37:00,4.8,0.5,30.32,SSE,148,2.0,6.0,82,0.00,,,0.00,VWS V12.07,2013-01-25 05:37:00,
2013-01-24 23:39:00,4.8,0.5,30.32,SSE,153,1.0,4.0,82,0.00,,,0.00,VWS V12.07,2013-01-25 05:39:00,
2013-01-24 23:40:00,4.8,0.5,30.32,SSE,154,2.0,4.0,82,0.00,,,0.00,VWS V12.07,2013-01-25 05:40:00,
2013-01-24 23:42:00,4.8,0.5,30.32,SSE,160,2.0,4.0,82,0.00,,,0.00,VWS V12.07,2013-01-25 05:42:00,
2013-01-24 23:44:00,4.8,0.5,30.32,South,183,1.0,4.0,82,0.00,,,0.00,VWS V12.07,2013-01-25 05:44:00,
2013-01-24 23:45:00,4.8,0.5,30.31,SSE,159,1.0,4.0,82,0.00,,,0.00,VWS V12.07,2013-01-25 05:45:00,
2013-01-24 23:47:00,4.8,0.5,30.31,SSE,159,2.0,4.0,82,0.00,,,0.00,VWS V12.07,2013-01-25 05:47:00,
2013-01-24 23:49:00,4.8,0.5,30.31,SE,138,3.0,5.0,82,0.00,,,0.00,VWS V12.07,2013-01-25 05:49:00,
2013-01-24 23:50:00,5.0,0.7,30.31,SE,138,3.0,6.0,82,0.00,,,0.00,VWS V12.07,2013-01-25 05:50:00,
2013-01-24 23:52:00,5.0,0.7,30.31,SSE,167,2.0,10.0,82,0.00,,,0.00,VWS V12.07,2013-01-25 05:52:00,
2013-01-24 23:54:00,5.0,0.7,30.31,SSE,167,0.0,10.0,82,0.00,,,0.00,VWS V12.07,2013-01-25 05:54:00,
2013-01-24 23:57:00,5.0,0.7,30.31,SE,142,3.0,10.0,82,0.00,,,0.00,VWS V12.07,2013-01-25 05:57:00,
2013-01-24 23:58:00,5.0,0.7,30.31,SE,143,3.0,10.0,82,0.00,,,0.00,VWS V12.07,2013-01-25 05:58:00,